Time,TemperatureF,DewpointF,PressureIn,WindDirection,WindDirectionDegrees,WindSpeedMPH,WindSpeedGustMPH,Humidity,HourlyPrecipIn,Conditions,Clouds,dailyrainin,SoftwareType,DateUTC
2013-08-28 00:01:00,64.4,25.8,30.00,SSW,201,3.1,3.6,23,0.00,,---,0.00,VWS V14.01,2013-08-28 06:01:00,
2013-08-28 00:02:00,64.4,26.9,30.00,SSW,192,4.0,4.9,24,0.00,,---,0.00,VWS V14.01,2013-08-28 06:02:00,
2013-08-28 00:04:00,64.2,26.7,30.00,SSW,193,0.0,4.0,24,0.00,,---,0.00,VWS V14.01,2013-08-28 06:04:00,
2013-08-28 00:05:00,64.0,26.5,30.00,SSW,193,0.0,2.2,24,0.00,,---,0.00,VWS V14.01,2013-08-28 06:05:00,
2013-08-28 00:06:00,63.9,26.4,30.00,SSW,193,0.0,0.0,24,0.00,,---,0.00,VWS V14.01,2013-08-28 06:06:00,
2013-08-28 00:08:00,63.9,26.4,30.00,SSW,193,2.7,3.6,24,0.00,,---,0.00,VWS V14.01,2013-08-28 06:08:00,
2013-08-28 00:09:00,63.7,26.2,30.00,SSW,197,3.1,3.1,24,0.00,,---,0.00,VWS V14.01,2013-08-28 06:09:00,
2013-08-28 00:10:00,63.7,26.2,30.00,SSW,201,4.0,4.9,24,0.00,,---,0.00,VWS V14.01,2013-08-28 06:10:00,
2013-08-28 00:11:00,63.7,26.2,30.00,SSW,197,5.8,6.3,24,0.00,,---,0.00,VWS V14.01,2013-08-28 06:11:00,
2013-08-28 00:13:00,63.9,26.4,30.00,SSW,196,5.4,5.8,24,0.00,,---,0.00,VWS V14.01,2013-08-28 06:13:00,
2013-08-28 00:14:00,64.0,26.5,30.00,SSW,197,4.9,5.8,24,0.00,,---,0.00,VWS V14.01,2013-08-28 06:14:00,
2013-08-28 00:15:00,64.0,26.5,30.00,SSW,201,4.0,5.8,24,0.00,,---,0.00,VWS V14.01,2013-08-28 06:15:00,
2013-08-28 00:16:00,64.2,26.7,30.00,SSW,193,4.0,5.4,24,0.00,,---,0.00,VWS V14.01,2013-08-28 06:16:00,
2013-08-28 00:18:00,64.4,26.9,30.00,SSW,200,5.4,6.3,24,0.00,,---,0.00,VWS V14.01,2013-08-28 06:18:00,
2013-08-28 00:20:00,64.6,27.0,30.00,SSW,205,5.8,5.8,24,0.00,,---,0.00,VWS V14.01,2013-08-28 06:20:00,
2013-08-28 00:21:00,64.8,27.2,30.00,SSW,195,4.9,5.8,24,0.00,,---,0.00,VWS V14.01,2013-08-28 06:21:00,
2013-08-28 00:23:00,64.9,27.3,30.00,SSW,201,5.4,6.3,24,0.00,,---,0.00,VWS V14.01,2013-08-28 06:23:00,
2013-08-28 00:25:00,64.9,27.3,30.00,SSW,196,5.4,5.8,24,0.00,,---,0.00,VWS V14.01,2013-08-28 06:25:00,
2013-08-28 00:26:00,64.9,27.3,30.00,SSW,193,5.4,6.3,24,0.00,,---,0.00,VWS V14.01,2013-08-28 06:26:00,
2013-08-28 00:27:00,64.9,27.3,30.00,SSW,200,4.0,5.4,24,0.00,,---,0.00,VWS V14.01,2013-08-28 06:27:00,
2013-08-28 00:28:00,65.1,27.5,30.00,SSW,193,5.4,5.4,24,0.00,,---,0.00,VWS V14.01,2013-08-28 06:28:00,
2013-08-28 00:30:00,65.1,27.5,30.00,SSW,206,4.9,4.9,24,0.00,,---,0.00,VWS V14.01,2013-08-28 06:30:00,
2013-08-28 00:31:00,64.9,27.3,30.00,SSW,196,4.0,6.3,24,0.00,,---,0.00,VWS V14.01,2013-08-28 06:31:00,
2013-08-28 00:32:00,64.9,27.3,30.00,SSW,197,3.1,4.0,24,0.00,,---,0.00,VWS V14.01,2013-08-28 06:32:00,
2013-08-28 00:33:00,64.8,27.2,30.00,SSW,198,3.1,4.0,24,0.00,,---,0.00,VWS V14.01,2013-08-28 06:33:00,
2013-08-28 00:34:00,64.8,27.2,30.00,SSW,198,3.1,3.6,24,0.00,,---,0.00,VWS V14.01,2013-08-28 06:34:00,
2013-08-28 00:35:00,64.6,27.0,30.00,SSW,194,4.9,4.9,24,0.00,,---,0.00,VWS V14.01,2013-08-28 06:35:00,
2013-08-28 00:36:00,64.4,26.9,30.00,SSW,193,4.0,4.0,24,0.00,,---,0.00,VWS V14.01,2013-08-28 06:36:00,
2013-08-28 00:37:00,64.4,26.9,30.00,SSW,196,3.6,4.0,24,0.00,,---,0.00,VWS V14.01,2013-08-28 06:37:00,
2013-08-28 00:39:00,64.4,26.9,30.00,SSW,195,3.6,4.0,24,0.00,,---,0.00,VWS V14.01,2013-08-28 06:39:00,
2013-08-28 00:40:00,64.4,26.9,30.00,SSW,193,2.7,3.6,24,0.00,,---,0.00,VWS V14.01,2013-08-28 06:40:00,
2013-08-28 00:42:00,64.4,26.9,30.00,South,181,3.1,3.1,24,0.00,,---,0.00,VWS V14.01,2013-08-28 06:42:00,
2013-08-28 00:44:00,64.4,26.9,30.00,South,186,3.1,4.0,24,0.00,,---,0.00,VWS V14.01,2013-08-28 06:44:00,
2013-08-28 00:45:00,64.2,26.7,30.00,South,179,2.7,3.1,24,0.00,,---,0.00,VWS V14.01,2013-08-28 06:45:00,
2013-08-28 00:47:00,64.2,26.7,30.00,South,182,3.1,3.1,24,0.00,,---,0.00,VWS V14.01,2013-08-28 06:47:00,
2013-08-28 00:48:00,64.0,26.5,30.00,South,185,2.7,2.7,24,0.00,,---,0.00,VWS V14.01,2013-08-28 06:48:00,
2013-08-28 00:49:00,64.0,26.5,30.00,South,178,2.7,2.7,24,0.00,,---,0.00,VWS V14.01,2013-08-28 06:49:00,
2013-08-28 00:50:00,63.9,26.4,30.00,South,182,2.7,3.6,24,0.00,,---,0.00,VWS V14.01,2013-08-28 06:50:00,
2013-08-28 00:52:00,63.9,26.4,30.00,SSW,196,3.1,4.0,24,0.00,,---,0.00,VWS V14.01,2013-08-28 06:52:00,
2013-08-28 00:54:00,63.5,27.1,30.00,SSW,199,3.1,4.0,25,0.00,,---,0.00,VWS V14.01,2013-08-28 06:54:00,
2013-08-28 00:55:00,63.5,27.1,30.00,SSW,199,2.7,4.0,25,0.00,,---,0.00,VWS V14.01,2013-08-28 06:55:00,
2013-08-28 00:57:00,63.1,26.8,30.00,SSW,198,3.1,3.1,25,0.00,,---,0.00,VWS V14.01,2013-08-28 06:57:00,
2013-08-28 00:58:00,63.1,26.8,30.00,SSW,196,4.0,4.0,25,0.00,,---,0.00,VWS V14.01,2013-08-28 06:58:00,
2013-08-28 00:59:00,63.1,26.8,30.00,SSW,193,3.6,5.4,25,0.00,,---,0.00,VWS V14.01,2013-08-28 06:59:00,
2013-08-28 01:00:00,63.1,26.8,30.00,SSW,201,4.5,4.9,25,0.00,,---,0.00,VWS V14.01,2013-08-28 07:00:00,
2013-08-28 01:01:00,63.3,26.9,30.00,SSW,204,3.6,4.9,25,0.00,,---,0.00,VWS V14.01,2013-08-28 07:01:00,
2013-08-28 01:02:00,63.3,26.9,30.00,SSW,195,3.6,3.6,25,0.00,,---,0.00,VWS V14.01,2013-08-28 07:02:00,
2013-08-28 01:04:00,63.5,27.1,30.00,SSW,202,3.6,5.4,25,0.00,,---,0.00,VWS V14.01,2013-08-28 07:04:00,
2013-08-28 01:05:00,63.5,27.1,30.00,SSW,205,5.4,5.4,25,0.00,,---,0.00,VWS V14.01,2013-08-28 07:05:00,
2013-08-28 01:06:00,63.5,27.1,30.00,SSW,205,3.6,5.8,25,0.00,,---,0.00,VWS V14.01,2013-08-28 07:06:00,
2013-08-28 01:07:00,63.7,27.2,30.00,SSW,213,4.9,4.9,25,0.00,,---,0.00,VWS V14.01,2013-08-28 07:07:00,
2013-08-28 01:09:00,63.9,26.4,30.00,SSW,194,2.7,3.6,24,0.00,,---,0.00,VWS V14.01,2013-08-28 07:09:00,
2013-08-28 01:10:00,63.9,26.4,30.00,SSW,192,4.0,4.0,24,0.00,,---,0.00,VWS V14.01,2013-08-28 07:10:00,
2013-08-28 01:11:00,63.9,26.4,30.00,South,191,2.7,3.6,24,0.00,,---,0.00,VWS V14.01,2013-08-28 07:11:00,
2013-08-28 01:12:00,64.0,26.5,30.00,South,186,2.2,4.0,24,0.00,,---,0.00,VWS V14.01,2013-08-28 07:12:00,
2013-08-28 01:14:00,64.0,27.5,30.00,SSE,165,2.7,3.1,25,0.00,,---,0.00,VWS V14.01,2013-08-28 07:14:00,
2013-08-28 01:15:00,64.0,27.5,30.00,South,173,2.7,3.1,25,0.00,,---,0.00,VWS V14.01,2013-08-28 07:15:00,
2013-08-28 01:16:00,63.9,27.4,30.00,South,178,3.1,4.0,25,0.00,,---,0.00,VWS V14.01,2013-08-28 07:16:00,
2013-08-28 01:17:00,63.9,27.4,30.00,South,181,4.0,4.0,25,0.00,,---,0.00,VWS V14.01,2013-08-28 07:17:00,
2013-08-28 01:20:00,63.5,27.1,30.00,SSW,198,4.0,5.4,25,0.00,,---,0.00,VWS V14.01,2013-08-28 07:20:00,
2013-08-28 01:21:00,63.5,27.1,30.00,South,185,3.1,4.0,25,0.00,,---,0.00,VWS V14.01,2013-08-28 07:21:00,
2013-08-28 01:22:00,63.5,27.1,30.00,South,186,4.0,4.0,25,0.00,,---,0.00,VWS V14.01,2013-08-28 07:22:00,
2013-08-28 01:25:00,63.3,26.9,30.00,SSW,203,3.1,3.6,25,0.00,,---,0.00,VWS V14.01,2013-08-28 07:25:00,
2013-08-28 01:26:00,63.3,26.9,30.00,SSW,203,3.1,4.9,25,0.00,,---,0.00,VWS V14.01,2013-08-28 07:26:00,
2013-08-28 01:27:00,63.3,26.9,30.00,SSW,201,3.6,3.6,25,0.00,,---,0.00,VWS V14.01,2013-08-28 07:27:00,
2013-08-28 01:28:00,63.3,26.9,29.97,SSW,206,0.0,3.6,25,0.00,,---,0.00,VWS V14.01,2013-08-28 07:28:00,
2013-08-28 01:30:00,63.3,26.9,29.97,SSW,206,2.2,2.2,25,0.00,,---,0.00,VWS V14.01,2013-08-28 07:30:00,
2013-08-28 01:31:00,63.3,25.9,29.97,SSW,206,0.0,0.0,24,0.00,,---,0.00,VWS V14.01,2013-08-28 07:31:00,
2013-08-28 01:32:00,63.3,25.9,29.97,SSW,206,0.0,0.0,24,0.00,,---,0.00,VWS V14.01,2013-08-28 07:32:00,
2013-08-28 01:33:00,63.3,25.9,29.97,South,183,3.1,3.1,24,0.00,,---,0.00,VWS V14.01,2013-08-28 07:33:00,
2013-08-28 01:35:00,63.3,26.9,29.97,SSE,166,2.7,2.7,25,0.00,,---,0.00,VWS V14.01,2013-08-28 07:35:00,
2013-08-28 01:37:00,63.3,26.9,29.97,South,173,2.2,2.7,25,0.00,,---,0.00,VWS V14.01,2013-08-28 07:37:00,
2013-08-28 01:38:00,63.1,26.8,29.97,SSW,192,2.2,3.1,25,0.00,,---,0.00,VWS V14.01,2013-08-28 07:38:00,
2013-08-28 01:40:00,63.0,26.6,29.97,SSW,192,3.1,3.1,25,0.00,,---,0.00,VWS V14.01,2013-08-28 07:40:00,
2013-08-28 01:42:00,63.0,26.6,29.97,South,187,2.7,2.7,25,0.00,,---,0.00,VWS V14.01,2013-08-28 07:42:00,
2013-08-28 01:43:00,63.0,26.6,29.97,SSW,195,3.1,4.0,25,0.00,,---,0.00,VWS V14.01,2013-08-28 07:43:00,
2013-08-28 01:44:00,63.0,26.6,29.97,SSW,195,2.7,2.7,25,0.00,,---,0.00,VWS V14.01,2013-08-28 07:44:00,
2013-08-28 01:45:00,63.0,26.6,29.97,SSW,195,0.0,0.0,25,0.00,,---,0.00,VWS V14.01,2013-08-28 07:45:00,
2013-08-28 01:47:00,63.0,26.6,29.97,SSW,195,0.0,0.0,25,0.00,,---,0.00,VWS V14.01,2013-08-28 07:47:00,
2013-08-28 01:48:00,63.0,26.6,29.97,SSW,195,0.0,0.0,25,0.00,,---,0.00,VWS V14.01,2013-08-28 07:48:00,
2013-08-28 01:49:00,63.0,26.6,29.97,South,174,2.7,3.1,25,0.00,,---,0.00,VWS V14.01,2013-08-28 07:49:00,
2013-08-28 01:51:00,62.6,26.3,29.97,South,177,0.0,2.2,25,0.00,,---,0.00,VWS V14.01,2013-08-28 07:51:00,
2013-08-28 01:52:00,62.4,26.2,29.97,SSW,196,3.1,3.1,25,0.00,,---,0.00,VWS V14.01,2013-08-28 07:52:00,
2013-08-28 01:53:00,62.1,26.8,29.97,South,188,3.1,3.6,26,0.00,,---,0.00,VWS V14.01,2013-08-28 07:53:00,
2013-08-28 01:55:00,61.7,26.5,29.97,South,191,3.1,4.0,26,0.00,,---,0.00,VWS V14.01,2013-08-28 07:55:00,
2013-08-28 01:56:00,61.7,26.5,29.97,South,191,2.7,2.7,26,0.00,,---,0.00,VWS V14.01,2013-08-28 07:56:00,
2013-08-28 01:57:00,61.5,26.3,29.97,South,191,2.7,3.6,26,0.00,,---,0.00,VWS V14.01,2013-08-28 07:57:00,
2013-08-28 01:58:00,61.5,26.3,29.97,South,191,2.7,3.6,26,0.00,,---,0.00,VWS V14.01,2013-08-28 07:58:00,
2013-08-28 02:00:00,61.5,26.3,29.97,South,191,2.2,2.2,26,0.00,,---,0.00,VWS V14.01,2013-08-28 08:00:00,
2013-08-28 02:01:00,61.3,26.2,29.97,South,184,2.2,2.2,26,0.00,,---,0.00,VWS V14.01,2013-08-28 08:01:00,
2013-08-28 02:02:00,61.3,26.2,29.97,South,184,2.7,3.1,26,0.00,,---,0.00,VWS V14.01,2013-08-28 08:02:00,
2013-08-28 02:03:00,61.3,26.2,29.97,South,184,2.7,3.1,26,0.00,,---,0.00,VWS V14.01,2013-08-28 08:03:00,
2013-08-28 02:05:00,61.2,26.0,29.97,South,185,3.1,3.1,26,0.00,,---,0.00,VWS V14.01,2013-08-28 08:05:00,
2013-08-28 02:06:00,61.0,25.9,29.97,South,181,3.1,4.0,26,0.00,,---,0.00,VWS V14.01,2013-08-28 08:06:00,
2013-08-28 02:08:00,61.0,25.9,29.97,SSW,195,4.0,4.0,26,0.00,,---,0.00,VWS V14.01,2013-08-28 08:08:00,
2013-08-28 02:09:00,61.0,25.9,29.97,South,183,3.6,4.0,26,0.00,,---,0.00,VWS V14.01,2013-08-28 08:09:00,
2013-08-28 02:10:00,60.8,25.7,29.97,South,185,3.1,4.0,26,0.00,,---,0.00,VWS V14.01,2013-08-28 08:10:00,
2013-08-28 02:11:00,60.8,26.6,29.97,South,186,2.7,4.0,27,0.00,,---,0.00,VWS V14.01,2013-08-28 08:11:00,
2013-08-28 02:12:00,60.8,26.6,29.97,South,186,2.7,3.1,27,0.00,,---,0.00,VWS V14.01,2013-08-28 08:12:00,
2013-08-28 02:13:00,60.6,26.5,29.97,South,186,3.1,3.1,27,0.00,,---,0.00,VWS V14.01,2013-08-28 08:13:00,
2013-08-28 02:15:00,60.6,26.5,29.97,South,184,3.1,3.6,27,0.00,,---,0.00,VWS V14.01,2013-08-28 08:15:00,
2013-08-28 02:16:00,60.6,26.5,29.97,SSW,192,4.0,4.5,27,0.00,,---,0.00,VWS V14.01,2013-08-28 08:16:00,
2013-08-28 02:17:00,60.6,26.5,29.97,SSW,197,4.0,4.0,27,0.00,,---,0.00,VWS V14.01,2013-08-28 08:17:00,
2013-08-28 02:18:00,60.6,26.5,29.97,SSW,197,3.6,4.0,27,0.00,,---,0.00,VWS V14.01,2013-08-28 08:18:00,
2013-08-28 02:20:00,60.6,26.5,29.97,SSW,192,4.0,4.0,27,0.00,,---,0.00,VWS V14.01,2013-08-28 08:20:00,
2013-08-28 02:21:00,60.8,26.6,29.97,South,186,3.1,3.6,27,0.00,,---,0.00,VWS V14.01,2013-08-28 08:21:00,
2013-08-28 02:23:00,60.8,26.6,29.97,SSW,193,3.1,3.6,27,0.00,,---,0.00,VWS V14.01,2013-08-28 08:23:00,
2013-08-28 02:25:00,60.8,26.6,29.97,SSW,206,4.0,4.0,27,0.00,,---,0.00,VWS V14.01,2013-08-28 08:25:00,
2013-08-28 02:26:00,60.8,26.6,29.97,SSW,193,4.0,4.0,27,0.00,,---,0.00,VWS V14.01,2013-08-28 08:26:00,
2013-08-28 02:28:00,60.8,26.6,29.97,SSW,198,2.7,2.7,27,0.00,,---,0.00,VWS V14.01,2013-08-28 08:28:00,
2013-08-28 02:30:00,60.6,27.4,29.97,South,190,4.0,4.9,28,0.00,,---,0.00,VWS V14.01,2013-08-28 08:30:00,
2013-08-28 02:32:00,60.6,27.4,29.97,SSW,196,4.0,4.9,28,0.00,,---,0.00,VWS V14.01,2013-08-28 08:32:00,
2013-08-28 02:33:00,60.6,27.4,29.97,SSW,196,3.1,4.9,28,0.00,,---,0.00,VWS V14.01,2013-08-28 08:33:00,
2013-08-28 02:36:00,60.6,27.4,29.97,SSW,200,4.0,5.8,28,0.00,,---,0.00,VWS V14.01,2013-08-28 08:36:00,
2013-08-28 02:37:00,60.6,27.4,29.97,SSW,196,4.0,5.4,28,0.00,,---,0.00,VWS V14.01,2013-08-28 08:37:00,
2013-08-28 02:38:00,60.8,27.5,29.97,SSW,205,6.3,6.3,28,0.00,,---,0.00,VWS V14.01,2013-08-28 08:38:00,
2013-08-28 02:39:00,60.8,27.5,29.97,SSW,192,4.9,6.3,28,0.00,,---,0.00,VWS V14.01,2013-08-28 08:39:00,
2013-08-28 02:41:00,61.0,27.7,29.97,SSW,202,3.6,5.4,28,0.00,,---,0.00,VWS V14.01,2013-08-28 08:41:00,
2013-08-28 02:42:00,61.0,27.7,29.97,SSW,194,3.1,4.0,28,0.00,,---,0.00,VWS V14.01,2013-08-28 08:42:00,
2013-08-28 02:43:00,61.0,27.7,29.97,SSW,196,2.7,2.7,28,0.00,,---,0.00,VWS V14.01,2013-08-28 08:43:00,
2013-08-28 02:44:00,61.0,27.7,29.97,SSW,196,0.0,2.7,28,0.00,,---,0.00,VWS V14.01,2013-08-28 08:44:00,
2013-08-28 02:46:00,60.8,27.5,29.97,SSW,196,4.9,4.9,28,0.00,,---,0.00,VWS V14.01,2013-08-28 08:46:00,
2013-08-28 02:47:00,60.8,27.5,29.97,SSW,193,4.0,4.9,28,0.00,,---,0.00,VWS V14.01,2013-08-28 08:47:00,
2013-08-28 02:48:00,60.8,27.5,29.97,SSW,202,4.9,4.9,28,0.00,,---,0.00,VWS V14.01,2013-08-28 08:48:00,
2013-08-28 02:49:00,60.6,27.4,29.97,SSW,201,4.0,4.9,28,0.00,,---,0.00,VWS V14.01,2013-08-28 08:49:00,
2013-08-28 02:52:00,60.8,27.5,29.97,SSW,198,5.8,6.3,28,0.00,,---,0.00,VWS V14.01,2013-08-28 08:52:00,
2013-08-28 02:53:00,61.0,26.8,29.97,SSW,196,4.0,4.9,27,0.00,,---,0.00,VWS V14.01,2013-08-28 08:53:00,
2013-08-28 02:54:00,61.0,26.8,29.97,SSW,201,3.6,5.4,27,0.00,,---,0.00,VWS V14.01,2013-08-28 08:54:00,
2013-08-28 02:55:00,61.2,26.9,29.97,SSW,195,4.0,4.0,27,0.00,,---,0.00,VWS V14.01,2013-08-28 08:55:00,
2013-08-28 02:57:00,61.3,27.1,29.97,SSW,194,3.1,3.6,27,0.00,,---,0.00,VWS V14.01,2013-08-28 08:57:00,
2013-08-28 02:58:00,61.5,27.2,29.97,SSW,209,4.0,4.0,27,0.00,,---,0.00,VWS V14.01,2013-08-28 08:58:00,
2013-08-28 02:59:00,61.5,27.2,29.97,SSW,193,5.4,5.4,27,0.00,,---,0.00,VWS V14.01,2013-08-28 08:59:00,
2013-08-28 03:00:00,61.5,27.2,29.97,SSW,194,4.0,4.0,27,0.00,,---,0.00,VWS V14.01,2013-08-28 09:00:00,
2013-08-28 03:02:00,61.7,27.4,29.97,SSW,196,3.6,4.9,27,0.00,,---,0.00,VWS V14.01,2013-08-28 09:02:00,
2013-08-28 03:03:00,61.7,27.4,29.97,South,189,3.1,3.1,27,0.00,,---,0.00,VWS V14.01,2013-08-28 09:03:00,
2013-08-28 03:04:00,61.7,27.4,29.97,South,189,3.1,3.1,27,0.00,,---,0.00,VWS V14.01,2013-08-28 09:04:00,
2013-08-28 03:05:00,61.5,27.2,29.97,SSW,192,3.6,3.6,27,0.00,,---,0.00,VWS V14.01,2013-08-28 09:05:00,
2013-08-28 03:07:00,61.3,27.1,29.97,SSW,196,4.9,4.9,27,0.00,,---,0.00,VWS V14.01,2013-08-28 09:07:00,
2013-08-28 03:08:00,61.3,27.1,29.97,South,175,3.1,4.9,27,0.00,,---,0.00,VWS V14.01,2013-08-28 09:08:00,
2013-08-28 03:09:00,61.3,27.1,29.97,SSW,199,3.1,4.0,27,0.00,,---,0.00,VWS V14.01,2013-08-28 09:09:00,
2013-08-28 03:10:00,61.2,26.9,29.97,SSW,194,4.0,4.0,27,0.00,,---,0.00,VWS V14.01,2013-08-28 09:10:00,
2013-08-28 03:12:00,61.2,27.8,29.97,SSW,194,4.0,4.9,28,0.00,,---,0.00,VWS V14.01,2013-08-28 09:12:00,
2013-08-28 03:13:00,61.2,27.8,29.97,SSW,196,4.9,4.9,28,0.00,,---,0.00,VWS V14.01,2013-08-28 09:13:00,
2013-08-28 03:14:00,61.0,27.7,29.97,SSW,195,5.4,7.6,28,0.00,,---,0.00,VWS V14.01,2013-08-28 09:14:00,
2013-08-28 03:15:00,61.0,27.7,29.97,South,183,4.0,5.4,28,0.00,,---,0.00,VWS V14.01,2013-08-28 09:15:00,
2013-08-28 03:18:00,60.8,27.5,29.97,SSW,199,4.9,5.4,28,0.00,,---,0.00,VWS V14.01,2013-08-28 09:18:00,
2013-08-28 03:19:00,60.8,27.5,29.97,South,191,4.9,6.3,28,0.00,,---,0.00,VWS V14.01,2013-08-28 09:19:00,
2013-08-28 03:21:00,60.6,27.4,29.97,SSW,194,5.8,5.8,28,0.00,,---,0.00,VWS V14.01,2013-08-28 09:21:00,
2013-08-28 03:23:00,60.6,27.4,29.97,SSW,210,3.1,3.6,28,0.00,,---,0.00,VWS V14.01,2013-08-28 09:23:00,
2013-08-28 03:24:00,60.8,27.5,29.97,SSW,196,6.3,6.7,28,0.00,,---,0.00,VWS V14.01,2013-08-28 09:24:00,
2013-08-28 03:26:00,60.8,27.5,29.97,SSW,197,4.0,4.9,28,0.00,,---,0.00,VWS V14.01,2013-08-28 09:26:00,
2013-08-28 03:28:00,60.8,27.5,29.97,SSW,196,3.6,4.9,28,0.00,,---,0.00,VWS V14.01,2013-08-28 09:28:00,
2013-08-28 03:29:00,60.8,27.5,29.94,South,183,4.0,4.0,28,0.00,,---,0.00,VWS V14.01,2013-08-28 09:29:00,
2013-08-28 03:31:00,60.8,27.5,29.94,SSW,192,4.0,4.0,28,0.00,,---,0.00,VWS V14.01,2013-08-28 09:31:00,
2013-08-28 03:33:00,61.0,27.7,29.94,South,191,3.1,4.0,28,0.00,,---,0.00,VWS V14.01,2013-08-28 09:33:00,
2013-08-28 03:34:00,61.0,27.7,29.94,South,190,3.1,3.1,28,0.00,,---,0.00,VWS V14.01,2013-08-28 09:34:00,
2013-08-28 03:35:00,61.0,27.7,29.94,South,184,3.1,3.1,28,0.00,,---,0.00,VWS V14.01,2013-08-28 09:35:00,
2013-08-28 03:36:00,61.0,27.7,29.94,SSW,195,4.9,5.4,28,0.00,,---,0.00,VWS V14.01,2013-08-28 09:36:00,
2013-08-28 03:37:00,61.0,27.7,29.94,SSW,197,5.8,5.8,28,0.00,,---,0.00,VWS V14.01,2013-08-28 09:37:00,
2013-08-28 03:38:00,61.0,27.7,29.94,SSW,197,3.6,4.5,28,0.00,,---,0.00,VWS V14.01,2013-08-28 09:38:00,
2013-08-28 03:39:00,61.0,27.7,29.94,SSW,195,3.1,4.0,28,0.00,,---,0.00,VWS V14.01,2013-08-28 09:39:00,
2013-08-28 03:40:00,61.0,27.7,29.94,SSW,196,4.0,4.0,28,0.00,,---,0.00,VWS V14.01,2013-08-28 09:40:00,
2013-08-28 03:41:00,61.0,27.7,29.94,SSW,200,3.6,4.0,28,0.00,,---,0.00,VWS V14.01,2013-08-28 09:41:00,
2013-08-28 03:42:00,60.8,27.5,29.94,SSW,196,3.1,3.6,28,0.00,,---,0.00,VWS V14.01,2013-08-28 09:42:00,
2013-08-28 03:43:00,60.6,28.2,29.94,South,188,3.6,3.6,29,0.00,,---,0.00,VWS V14.01,2013-08-28 09:43:00,
2013-08-28 03:44:00,60.6,28.2,29.94,South,178,3.1,3.6,29,0.00,,---,0.00,VWS V14.01,2013-08-28 09:44:00,
2013-08-28 03:45:00,60.4,28.1,29.94,SSW,200,4.0,5.4,29,0.00,,---,0.00,VWS V14.01,2013-08-28 09:45:00,
2013-08-28 03:46:00,60.4,28.1,29.94,South,183,3.6,4.0,29,0.00,,---,0.00,VWS V14.01,2013-08-28 09:46:00,
2013-08-28 03:47:00,60.4,28.1,29.94,South,189,4.0,4.0,29,0.00,,---,0.00,VWS V14.01,2013-08-28 09:47:00,
2013-08-28 03:49:00,60.4,28.1,29.94,SSW,195,4.9,4.9,29,0.00,,---,0.00,VWS V14.01,2013-08-28 09:49:00,
2013-08-28 03:50:00,60.3,27.9,29.94,SSW,196,3.6,4.0,29,0.00,,---,0.00,VWS V14.01,2013-08-28 09:50:00,
2013-08-28 03:52:00,60.3,27.9,29.94,South,187,2.7,3.6,29,0.00,,---,0.00,VWS V14.01,2013-08-28 09:52:00,
2013-08-28 03:54:00,60.3,28.7,29.94,SSW,193,3.6,4.0,30,0.00,,---,0.00,VWS V14.01,2013-08-28 09:54:00,
2013-08-28 03:55:00,60.3,28.7,29.94,SSW,193,0.0,3.6,30,0.00,,---,0.00,VWS V14.01,2013-08-28 09:55:00,
2013-08-28 03:57:00,60.1,28.6,29.94,SSW,193,2.7,3.1,30,0.00,,---,0.00,VWS V14.01,2013-08-28 09:57:00,
2013-08-28 03:58:00,60.1,28.6,29.94,SSW,193,2.7,2.7,30,0.00,,---,0.00,VWS V14.01,2013-08-28 09:58:00,
2013-08-28 03:59:00,60.1,28.6,29.97,South,185,0.0,3.6,30,0.00,,---,0.00,VWS V14.01,2013-08-28 09:59:00,
2013-08-28 04:01:00,59.9,28.4,29.97,SSW,197,3.6,4.0,30,0.00,,---,0.00,VWS V14.01,2013-08-28 10:01:00,
2013-08-28 04:02:00,59.9,28.4,29.97,South,189,3.1,3.6,30,0.00,,---,0.00,VWS V14.01,2013-08-28 10:02:00,
2013-08-28 04:03:00,59.9,28.4,29.97,SSW,194,3.6,3.6,30,0.00,,---,0.00,VWS V14.01,2013-08-28 10:03:00,
2013-08-28 04:04:00,59.9,28.4,29.97,South,190,3.1,4.0,30,0.00,,---,0.00,VWS V14.01,2013-08-28 10:04:00,
2013-08-28 04:06:00,59.9,28.4,29.97,SSW,195,3.1,3.6,30,0.00,,---,0.00,VWS V14.01,2013-08-28 10:06:00,
2013-08-28 04:08:00,59.9,28.4,29.97,South,185,4.0,5.4,30,0.00,,---,0.00,VWS V14.01,2013-08-28 10:08:00,
2013-08-28 04:09:00,59.9,28.4,29.97,South,188,2.7,5.8,30,0.00,,---,0.00,VWS V14.01,2013-08-28 10:09:00,
2013-08-28 04:10:00,59.9,28.4,29.97,SSW,193,2.7,4.0,30,0.00,,---,0.00,VWS V14.01,2013-08-28 10:10:00,
2013-08-28 04:11:00,59.9,28.4,29.97,South,188,4.9,4.9,30,0.00,,---,0.00,VWS V14.01,2013-08-28 10:11:00,
2013-08-28 04:13:00,59.9,28.4,29.97,SSW,192,3.1,3.6,30,0.00,,---,0.00,VWS V14.01,2013-08-28 10:13:00,
2013-08-28 04:14:00,59.9,28.4,29.97,SSW,195,2.7,3.6,30,0.00,,---,0.00,VWS V14.01,2013-08-28 10:14:00,
2013-08-28 04:15:00,59.9,28.4,29.97,SSW,193,4.0,4.0,30,0.00,,---,0.00,VWS V14.01,2013-08-28 10:15:00,
2013-08-28 04:16:00,59.9,28.4,29.97,SSW,196,4.0,4.0,30,0.00,,---,0.00,VWS V14.01,2013-08-28 10:16:00,
2013-08-28 04:18:00,59.9,28.4,29.97,SSW,201,2.7,4.0,30,0.00,,---,0.00,VWS V14.01,2013-08-28 10:18:00,
2013-08-28 04:19:00,59.9,28.4,29.97,SSW,194,2.7,3.6,30,0.00,,---,0.00,VWS V14.01,2013-08-28 10:19:00,
2013-08-28 04:20:00,59.9,28.4,29.97,SSW,194,3.6,3.6,30,0.00,,---,0.00,VWS V14.01,2013-08-28 10:20:00,
2013-08-28 04:21:00,59.9,28.4,29.97,SSW,192,2.2,3.6,30,0.00,,---,0.00,VWS V14.01,2013-08-28 10:21:00,
2013-08-28 04:22:00,59.7,28.3,29.97,South,185,2.2,2.7,30,0.00,,---,0.00,VWS V14.01,2013-08-28 10:22:00,
2013-08-28 04:24:00,59.7,28.3,29.97,South,185,0.0,2.2,30,0.00,,---,0.00,VWS V14.01,2013-08-28 10:24:00,
2013-08-28 04:25:00,59.5,28.1,29.97,South,185,0.0,0.0,30,0.00,,---,0.00,VWS V14.01,2013-08-28 10:25:00,
2013-08-28 04:26:00,59.5,28.1,29.97,South,181,3.6,4.0,30,0.00,,---,0.00,VWS V14.01,2013-08-28 10:26:00,
2013-08-28 04:27:00,59.4,27.9,29.97,South,191,2.7,3.6,30,0.00,,---,0.00,VWS V14.01,2013-08-28 10:27:00,
2013-08-28 04:29:00,59.4,28.7,29.94,SSW,195,4.9,4.9,31,0.00,,---,0.00,VWS V14.01,2013-08-28 10:29:00,
2013-08-28 04:30:00,59.4,28.7,29.94,SSW,192,4.9,4.9,31,0.00,,---,0.00,VWS V14.01,2013-08-28 10:30:00,
2013-08-28 04:31:00,59.4,28.7,29.94,SSW,198,4.0,4.9,31,0.00,,---,0.00,VWS V14.01,2013-08-28 10:31:00,
2013-08-28 04:32:00,59.4,28.7,29.94,SSW,197,5.4,5.4,31,0.00,,---,0.00,VWS V14.01,2013-08-28 10:32:00,
2013-08-28 04:34:00,59.4,29.5,29.94,South,191,4.0,4.0,32,0.00,,---,0.00,VWS V14.01,2013-08-28 10:34:00,
2013-08-28 04:35:00,59.4,29.5,29.94,South,186,3.1,3.6,32,0.00,,---,0.00,VWS V14.01,2013-08-28 10:35:00,
2013-08-28 04:36:00,59.4,29.5,29.94,South,186,3.1,3.1,32,0.00,,---,0.00,VWS V14.01,2013-08-28 10:36:00,
2013-08-28 04:37:00,59.2,29.4,29.94,South,185,2.2,3.1,32,0.00,,---,0.00,VWS V14.01,2013-08-28 10:37:00,
2013-08-28 04:39:00,59.2,29.4,29.94,South,185,0.0,0.0,32,0.00,,---,0.00,VWS V14.01,2013-08-28 10:39:00,
2013-08-28 04:40:00,59.2,29.4,29.94,South,185,2.7,2.7,32,0.00,,---,0.00,VWS V14.01,2013-08-28 10:40:00,
2013-08-28 04:42:00,59.0,29.2,29.94,South,188,3.1,3.1,32,0.00,,---,0.00,VWS V14.01,2013-08-28 10:42:00,
2013-08-28 04:43:00,59.0,28.4,29.94,SSW,192,2.7,3.1,31,0.00,,---,0.00,VWS V14.01,2013-08-28 10:43:00,
2013-08-28 04:44:00,59.0,29.2,29.94,SSW,197,3.6,4.0,32,0.00,,---,0.00,VWS V14.01,2013-08-28 10:44:00,
2013-08-28 04:45:00,59.0,29.2,29.94,SSW,193,2.7,3.6,32,0.00,,---,0.00,VWS V14.01,2013-08-28 10:45:00,
2013-08-28 04:48:00,59.0,29.2,29.94,SSW,194,5.8,5.8,32,0.00,,---,0.00,VWS V14.01,2013-08-28 10:48:00,
2013-08-28 04:49:00,59.2,29.4,29.94,SSW,196,4.0,4.0,32,0.00,,---,0.00,VWS V14.01,2013-08-28 10:49:00,
2013-08-28 04:50:00,59.2,29.4,29.94,SSW,192,3.1,3.6,32,0.00,,---,0.00,VWS V14.01,2013-08-28 10:50:00,
2013-08-28 04:53:00,59.0,29.2,29.94,SSW,192,3.6,4.0,32,0.00,,---,0.00,VWS V14.01,2013-08-28 10:53:00,
2013-08-28 04:54:00,59.0,29.2,29.94,SSW,193,3.1,3.6,32,0.00,,---,0.00,VWS V14.01,2013-08-28 10:54:00,
2013-08-28 04:55:00,59.0,29.2,29.94,SSW,197,3.1,4.0,32,0.00,,---,0.00,VWS V14.01,2013-08-28 10:55:00,
2013-08-28 04:58:00,59.2,29.4,29.94,South,189,2.2,2.2,32,0.00,,---,0.00,VWS V14.01,2013-08-28 10:58:00,
2013-08-28 04:59:00,59.0,29.2,29.94,SSW,198,4.0,4.0,32,0.00,,---,0.00,VWS V14.01,2013-08-28 10:59:00,
2013-08-28 05:00:00,59.0,29.2,29.94,SSW,198,2.7,4.0,32,0.00,,---,0.00,VWS V14.01,2013-08-28 11:00:00,
2013-08-28 05:03:00,59.2,29.4,29.94,South,184,2.2,2.2,32,0.00,,---,0.00,VWS V14.01,2013-08-28 11:03:00,
2013-08-28 05:05:00,59.2,29.4,29.94,South,190,3.6,3.6,32,0.00,,---,0.00,VWS V14.01,2013-08-28 11:05:00,
2013-08-28 05:06:00,59.2,29.4,29.94,South,180,2.7,4.0,32,0.00,,---,0.00,VWS V14.01,2013-08-28 11:06:00,
2013-08-28 05:09:00,59.2,29.4,29.94,South,169,2.7,2.7,32,0.00,,---,0.00,VWS V14.01,2013-08-28 11:09:00,
2013-08-28 05:10:00,58.8,29.0,29.94,SSE,168,2.2,2.2,32,0.00,,---,0.00,VWS V14.01,2013-08-28 11:10:00,
2013-08-28 05:11:00,58.8,29.0,29.94,SSE,168,2.2,2.2,32,0.00,,---,0.00,VWS V14.01,2013-08-28 11:11:00,
2013-08-28 05:14:00,58.1,29.9,29.94,South,181,0.0,3.1,34,0.00,,---,0.00,VWS V14.01,2013-08-28 11:14:00,
2013-08-28 05:15:00,57.9,29.7,29.94,South,181,3.1,3.1,34,0.00,,---,0.00,VWS V14.01,2013-08-28 11:15:00,
2013-08-28 05:16:00,57.9,29.7,29.94,South,181,2.7,3.1,34,0.00,,---,0.00,VWS V14.01,2013-08-28 11:16:00,
2013-08-28 05:19:00,57.7,29.6,29.94,South,190,4.0,4.0,34,0.00,,---,0.00,VWS V14.01,2013-08-28 11:19:00,
2013-08-28 05:20:00,57.9,29.7,29.94,South,182,2.7,4.0,34,0.00,,---,0.00,VWS V14.01,2013-08-28 11:20:00,
2013-08-28 05:21:00,57.9,29.7,29.94,South,181,2.7,3.6,34,0.00,,---,0.00,VWS V14.01,2013-08-28 11:21:00,
2013-08-28 05:24:00,57.9,30.5,29.94,South,190,3.1,3.1,35,0.00,,---,0.00,VWS V14.01,2013-08-28 11:24:00,
2013-08-28 05:25:00,57.9,30.5,29.94,South,187,4.0,4.0,35,0.00,,---,0.00,VWS V14.01,2013-08-28 11:25:00,
2013-08-28 05:26:00,57.9,29.7,29.94,South,189,3.6,4.0,34,0.00,,---,0.00,VWS V14.01,2013-08-28 11:26:00,
2013-08-28 05:27:00,57.9,29.7,29.94,South,189,0.0,4.0,34,0.00,,---,0.00,VWS V14.01,2013-08-28 11:27:00,
2013-08-28 05:29:00,57.7,30.3,29.94,South,179,2.7,3.6,35,0.00,,---,0.00,VWS V14.01,2013-08-28 11:29:00,
2013-08-28 05:30:00,57.6,30.1,29.94,South,189,2.7,3.1,35,0.00,,---,0.00,VWS V14.01,2013-08-28 11:30:00,
2013-08-28 05:31:00,57.6,30.1,29.94,South,188,2.7,3.1,35,0.00,,---,0.00,VWS V14.01,2013-08-28 11:31:00,
2013-08-28 05:32:00,57.6,30.1,29.94,SSW,204,3.1,4.0,35,0.00,,---,0.00,VWS V14.01,2013-08-28 11:32:00,
2013-08-28 05:33:00,57.6,30.1,29.94,SSW,192,5.8,5.8,35,0.00,,---,0.00,VWS V14.01,2013-08-28 11:33:00,
2013-08-28 05:34:00,57.6,30.1,29.94,SSW,198,4.5,4.5,35,0.00,,---,0.00,VWS V14.01,2013-08-28 11:34:00,
2013-08-28 05:35:00,57.6,30.1,29.94,SSW,202,5.4,6.7,35,0.00,,---,0.00,VWS V14.01,2013-08-28 11:35:00,
2013-08-28 05:36:00,57.6,30.1,29.94,SSW,198,4.0,5.4,35,0.00,,---,0.00,VWS V14.01,2013-08-28 11:36:00,
2013-08-28 05:37:00,57.6,30.1,29.94,SSW,196,3.1,5.4,35,0.00,,---,0.00,VWS V14.01,2013-08-28 11:37:00,
2013-08-28 05:38:00,57.6,30.1,29.94,SSW,201,4.0,4.9,35,0.00,,---,0.00,VWS V14.01,2013-08-28 11:38:00,
2013-08-28 05:40:00,57.6,30.1,29.94,SSW,198,3.1,4.9,35,0.00,,---,0.00,VWS V14.01,2013-08-28 11:40:00,
2013-08-28 05:41:00,57.6,30.1,29.94,South,189,4.0,4.0,35,0.00,,---,0.00,VWS V14.01,2013-08-28 11:41:00,
2013-08-28 05:42:00,57.4,30.0,29.94,South,181,3.1,5.4,35,0.00,,---,0.00,VWS V14.01,2013-08-28 11:42:00,
2013-08-28 05:44:00,57.4,30.0,29.94,SSW,192,2.7,3.6,35,0.00,,---,0.00,VWS V14.01,2013-08-28 11:44:00,
2013-08-28 05:45:00,57.4,30.0,29.94,SSW,193,3.6,3.6,35,0.00,,---,0.00,VWS V14.01,2013-08-28 11:45:00,
2013-08-28 05:46:00,57.4,30.0,29.94,South,183,3.1,4.0,35,0.00,,---,0.00,VWS V14.01,2013-08-28 11:46:00,
2013-08-28 05:47:00,57.2,29.8,29.94,South,189,3.6,4.0,35,0.00,,---,0.00,VWS V14.01,2013-08-28 11:47:00,
2013-08-28 05:48:00,57.2,29.8,29.94,South,191,5.4,5.4,35,0.00,,---,0.00,VWS V14.01,2013-08-28 11:48:00,
2013-08-28 05:49:00,57.2,29.8,29.94,SSW,197,4.0,4.0,35,0.00,,---,0.00,VWS V14.01,2013-08-28 11:49:00,
2013-08-28 05:50:00,57.2,30.5,29.94,SSW,198,3.6,4.9,36,0.00,,---,0.00,VWS V14.01,2013-08-28 11:50:00,
2013-08-28 05:51:00,57.2,30.5,29.94,SSW,201,3.1,4.0,36,0.00,,---,0.00,VWS V14.01,2013-08-28 11:51:00,
2013-08-28 05:52:00,57.2,30.5,29.94,SSW,199,3.1,5.4,36,0.00,,---,0.00,VWS V14.01,2013-08-28 11:52:00,
2013-08-28 05:53:00,57.2,29.8,29.94,SSW,192,3.6,6.3,35,0.00,,---,0.00,VWS V14.01,2013-08-28 11:53:00,
2013-08-28 05:55:00,57.4,30.0,29.94,SSW,206,5.4,5.4,35,0.00,,---,0.00,VWS V14.01,2013-08-28 11:55:00,
2013-08-28 05:56:00,57.6,30.1,29.94,SSW,198,4.0,5.8,35,0.00,,---,0.00,VWS V14.01,2013-08-28 11:56:00,
2013-08-28 05:57:00,57.7,30.3,29.94,SSW,196,5.8,6.3,35,0.00,,---,0.00,VWS V14.01,2013-08-28 11:57:00,
2013-08-28 05:58:00,57.7,30.3,29.94,SSW,192,5.4,6.3,35,0.00,,---,0.00,VWS V14.01,2013-08-28 11:58:00,
2013-08-28 06:00:00,58.1,30.6,29.94,South,191,4.9,6.3,35,0.00,,---,0.00,VWS V14.01,2013-08-28 12:00:00,
2013-08-28 06:01:00,58.1,30.6,29.94,SSW,192,5.8,5.8,35,0.00,,---,0.00,VWS V14.01,2013-08-28 12:01:00,
2013-08-28 06:02:00,58.3,30.8,29.94,South,183,5.4,5.4,35,0.00,,---,0.00,VWS V14.01,2013-08-28 12:02:00,
2013-08-28 06:04:00,58.5,30.9,29.94,South,178,5.4,5.8,35,0.00,,---,0.00,VWS V14.01,2013-08-28 12:04:00,
2013-08-28 06:05:00,58.5,30.9,29.94,South,184,5.4,5.4,35,0.00,,---,0.00,VWS V14.01,2013-08-28 12:05:00,
2013-08-28 06:06:00,58.5,30.9,29.94,SSW,198,3.1,5.4,35,0.00,,---,0.00,VWS V14.01,2013-08-28 12:06:00,
2013-08-28 06:07:00,58.5,30.9,29.94,South,191,4.9,4.9,35,0.00,,---,0.00,VWS V14.01,2013-08-28 12:07:00,
2013-08-28 06:09:00,58.6,31.1,29.94,SSW,195,5.8,5.8,35,0.00,,---,0.00,VWS V14.01,2013-08-28 12:09:00,
2013-08-28 06:10:00,58.6,31.1,29.94,South,187,4.5,5.4,35,0.00,,---,0.00,VWS V14.01,2013-08-28 12:10:00,
2013-08-28 06:11:00,58.8,31.2,29.94,SSW,197,4.0,4.5,35,0.00,,---,0.00,VWS V14.01,2013-08-28 12:11:00,
2013-08-28 06:12:00,58.8,31.2,29.94,South,187,3.1,4.0,35,0.00,,---,0.00,VWS V14.01,2013-08-28 12:12:00,
2013-08-28 06:13:00,59.0,30.7,29.94,SSW,198,3.6,4.0,34,0.00,,---,0.00,VWS V14.01,2013-08-28 12:13:00,
2013-08-28 06:14:00,59.0,30.7,29.94,SSW,195,4.0,4.0,34,0.00,,---,0.00,VWS V14.01,2013-08-28 12:14:00,
2013-08-28 06:16:00,59.2,30.9,29.94,South,191,3.6,4.0,34,0.00,,---,0.00,VWS V14.01,2013-08-28 12:16:00,
2013-08-28 06:17:00,59.2,30.1,29.94,SSW,194,4.9,4.9,33,0.00,,---,0.00,VWS V14.01,2013-08-28 12:17:00,
2013-08-28 06:18:00,59.4,30.3,29.94,SSW,198,4.0,4.9,33,0.00,,---,0.00,VWS V14.01,2013-08-28 12:18:00,
2013-08-28 06:19:00,59.4,30.3,29.94,SSW,193,3.6,4.0,33,0.00,,---,0.00,VWS V14.01,2013-08-28 12:19:00,
2013-08-28 06:21:00,59.5,29.7,29.94,South,187,2.7,4.0,32,0.00,,---,0.00,VWS V14.01,2013-08-28 12:21:00,
2013-08-28 06:22:00,59.5,29.7,29.94,South,181,3.1,3.1,32,0.00,,---,0.00,VWS V14.01,2013-08-28 12:22:00,
2013-08-28 06:23:00,59.5,30.4,29.94,SSE,168,2.7,3.1,33,0.00,,---,0.00,VWS V14.01,2013-08-28 12:23:00,
2013-08-28 06:24:00,59.4,30.3,29.94,SSE,160,2.2,2.7,33,0.00,,---,0.00,VWS V14.01,2013-08-28 12:24:00,
2013-08-28 06:26:00,59.2,30.1,29.94,SSE,168,2.2,2.7,33,0.00,,---,0.00,VWS V14.01,2013-08-28 12:26:00,
2013-08-28 06:27:00,59.0,30.7,29.94,South,170,2.7,2.7,34,0.00,,---,0.00,VWS V14.01,2013-08-28 12:27:00,
2013-08-28 06:28:00,58.8,30.5,29.94,South,183,3.6,4.0,34,0.00,,---,0.00,VWS V14.01,2013-08-28 12:28:00,
2013-08-28 06:30:00,58.3,30.8,29.94,South,185,3.6,3.6,35,0.00,,---,0.00,VWS V14.01,2013-08-28 12:30:00,
2013-08-28 06:32:00,57.9,30.5,29.94,SSW,200,4.0,4.0,35,0.00,,---,0.00,VWS V14.01,2013-08-28 12:32:00,
2013-08-28 06:33:00,57.7,30.3,29.94,South,182,2.7,4.0,35,0.00,,---,0.00,VWS V14.01,2013-08-28 12:33:00,
2013-08-28 06:35:00,57.6,30.1,29.94,SSW,196,4.0,5.8,35,0.00,,---,0.00,VWS V14.01,2013-08-28 12:35:00,
2013-08-28 06:37:00,57.6,30.1,29.94,SSW,197,4.0,5.4,35,0.00,,---,0.00,VWS V14.01,2013-08-28 12:37:00,
2013-08-28 06:38:00,57.6,30.1,29.94,SSW,198,3.1,4.0,35,0.00,,---,0.00,VWS V14.01,2013-08-28 12:38:00,
2013-08-28 06:40:00,57.6,30.1,29.94,SSW,196,4.0,4.0,35,0.00,,---,0.00,VWS V14.01,2013-08-28 12:40:00,
2013-08-28 06:42:00,57.6,30.1,29.94,SSW,202,3.6,4.9,35,0.00,,---,0.00,VWS V14.01,2013-08-28 12:42:00,
2013-08-28 06:43:00,57.6,30.1,29.94,SSW,200,3.6,5.8,35,0.00,,---,0.00,VWS V14.01,2013-08-28 12:43:00,
2013-08-28 06:46:00,57.9,30.5,29.94,SSW,198,3.6,4.0,35,0.00,,---,0.00,VWS V14.01,2013-08-28 12:46:00,
2013-08-28 06:47:00,58.1,30.6,29.94,SSW,197,3.6,4.5,35,0.00,,---,0.00,VWS V14.01,2013-08-28 12:47:00,
2013-08-28 06:48:00,58.1,30.6,29.94,SSW,206,3.6,4.0,35,0.00,,---,0.00,VWS V14.01,2013-08-28 12:48:00,
2013-08-28 06:51:00,58.3,30.8,29.94,South,181,2.7,2.7,35,0.00,,---,0.00,VWS V14.01,2013-08-28 12:51:00,
2013-08-28 06:52:00,58.5,30.9,29.94,South,174,2.7,2.7,35,0.00,,---,0.00,VWS V14.01,2013-08-28 12:52:00,
2013-08-28 06:53:00,58.3,30.8,29.94,SSE,164,3.1,3.1,35,0.00,,---,0.00,VWS V14.01,2013-08-28 12:53:00,
2013-08-28 06:54:00,58.3,30.8,29.94,SSE,160,2.7,3.1,35,0.00,,---,0.00,VWS V14.01,2013-08-28 12:54:00,
2013-08-28 06:56:00,58.1,30.6,29.94,SSE,161,2.7,3.1,35,0.00,,---,0.00,VWS V14.01,2013-08-28 12:56:00,
2013-08-28 06:57:00,58.1,30.6,29.94,South,178,2.2,3.6,35,0.00,,---,0.00,VWS V14.01,2013-08-28 12:57:00,
2013-08-28 06:58:00,57.9,30.5,29.94,South,183,3.1,3.1,35,0.00,,---,0.00,VWS V14.01,2013-08-28 12:58:00,
2013-08-28 06:59:00,57.9,30.5,29.94,South,189,2.7,3.1,35,0.00,,---,0.00,VWS V14.01,2013-08-28 12:59:00,
2013-08-28 07:01:00,57.6,30.1,29.94,SSW,199,3.1,4.9,35,0.00,,---,0.00,VWS V14.01,2013-08-28 13:01:00,
2013-08-28 07:02:00,57.6,30.1,29.94,SSW,198,2.2,3.1,35,0.00,,---,0.00,VWS V14.01,2013-08-28 13:02:00,
2013-08-28 07:03:00,57.4,30.0,29.94,South,189,2.2,3.6,35,0.00,,---,0.00,VWS V14.01,2013-08-28 13:03:00,
2013-08-28 07:04:00,57.4,30.0,29.94,South,189,0.0,3.1,35,0.00,,---,0.00,VWS V14.01,2013-08-28 13:04:00,
2013-08-28 07:05:00,57.4,30.0,29.94,South,187,2.2,3.1,35,0.00,,---,0.00,VWS V14.01,2013-08-28 13:05:00,
2013-08-28 07:07:00,57.2,29.8,29.94,South,185,2.7,3.1,35,0.00,,---,0.00,VWS V14.01,2013-08-28 13:07:00,
2013-08-28 07:08:00,57.2,30.5,29.94,SSW,197,3.6,3.6,36,0.00,,---,0.00,VWS V14.01,2013-08-28 13:08:00,
2013-08-28 07:09:00,57.2,30.5,29.94,SSW,205,3.6,3.6,36,0.00,,---,0.00,VWS V14.01,2013-08-28 13:09:00,
2013-08-28 07:10:00,57.4,30.7,29.94,SSW,195,3.1,4.0,36,0.00,,---,0.00,VWS V14.01,2013-08-28 13:10:00,
2013-08-28 07:12:00,57.6,30.8,29.94,SSW,211,4.0,4.9,36,0.00,,---,0.00,VWS V14.01,2013-08-28 13:12:00,
2013-08-28 07:13:00,57.7,31.0,29.94,SSW,202,4.0,5.4,36,0.00,,---,0.00,VWS V14.01,2013-08-28 13:13:00,
2013-08-28 07:14:00,57.7,31.0,29.94,SSW,200,3.6,4.0,36,0.00,,---,0.00,VWS V14.01,2013-08-28 13:14:00,
2013-08-28 07:15:00,57.7,31.0,29.94,South,183,3.1,3.6,36,0.00,,---,0.00,VWS V14.01,2013-08-28 13:15:00,
2013-08-28 07:17:00,57.9,31.1,29.94,SSW,197,2.7,2.7,36,0.00,,---,0.00,VWS V14.01,2013-08-28 13:17:00,
2013-08-28 07:18:00,57.9,30.5,29.94,SSW,197,2.7,2.7,35,0.00,,---,0.00,VWS V14.01,2013-08-28 13:18:00,
2013-08-28 07:19:00,57.9,30.5,29.94,SSW,197,3.1,3.1,35,0.00,,---,0.00,VWS V14.01,2013-08-28 13:19:00,
2013-08-28 07:20:00,58.1,30.6,29.94,SSW,197,2.7,3.1,35,0.00,,---,0.00,VWS V14.01,2013-08-28 13:20:00,
2013-08-28 07:21:00,58.1,30.6,29.94,SSW,192,3.1,3.6,35,0.00,,---,0.00,VWS V14.01,2013-08-28 13:21:00,
2013-08-28 07:23:00,58.3,30.8,29.94,South,191,2.2,2.2,35,0.00,,---,0.00,VWS V14.01,2013-08-28 13:23:00,
2013-08-28 07:24:00,58.5,30.9,29.94,South,191,0.0,2.7,35,0.00,,---,0.00,VWS V14.01,2013-08-28 13:24:00,
2013-08-28 07:25:00,58.5,30.9,29.94,South,190,2.2,2.7,35,0.00,,---,0.00,VWS V14.01,2013-08-28 13:25:00,
2013-08-28 07:26:00,58.5,30.9,29.94,South,171,2.7,2.7,35,0.00,,---,0.00,VWS V14.01,2013-08-28 13:26:00,
2013-08-28 07:28:00,58.5,30.9,29.94,South,169,2.7,3.1,35,0.00,,---,0.00,VWS V14.01,2013-08-28 13:28:00,
2013-08-28 07:29:00,58.5,30.9,29.97,South,173,2.7,2.7,35,0.00,,---,0.00,VWS V14.01,2013-08-28 13:29:00,
2013-08-28 07:30:00,58.5,30.9,29.97,South,188,2.7,3.1,35,0.00,,---,0.00,VWS V14.01,2013-08-28 13:30:00,
2013-08-28 07:33:00,58.1,30.6,29.97,SSW,192,2.7,2.7,35,0.00,,---,0.00,VWS V14.01,2013-08-28 13:33:00,
2013-08-28 07:34:00,58.1,30.6,29.97,SSW,192,2.2,3.1,35,0.00,,---,0.00,VWS V14.01,2013-08-28 13:34:00,
2013-08-28 07:36:00,58.1,30.6,29.97,SSW,197,3.1,3.6,35,0.00,,---,0.00,VWS V14.01,2013-08-28 13:36:00,
2013-08-28 07:38:00,58.1,30.6,29.97,SSW,195,4.0,5.4,35,0.00,,---,0.00,VWS V14.01,2013-08-28 13:38:00,
2013-08-28 07:39:00,58.3,30.8,29.97,SSW,200,3.6,3.6,35,0.00,,---,0.00,VWS V14.01,2013-08-28 13:39:00,
2013-08-28 07:42:00,58.8,31.2,29.97,South,187,3.1,3.1,35,0.00,,---,0.00,VWS V14.01,2013-08-28 13:42:00,
2013-08-28 07:43:00,58.8,31.2,29.97,SSW,192,2.2,4.0,35,0.00,,---,0.00,VWS V14.01,2013-08-28 13:43:00,
2013-08-28 07:44:00,59.2,31.6,29.97,South,191,2.7,2.7,35,0.00,,---,0.00,VWS V14.01,2013-08-28 13:44:00,
2013-08-28 07:47:00,59.4,31.7,29.97,SSW,194,2.2,3.6,35,0.00,,---,0.00,VWS V14.01,2013-08-28 13:47:00,
2013-08-28 07:48:00,59.5,31.9,29.97,SSW,194,0.0,3.1,35,0.00,,---,0.00,VWS V14.01,2013-08-28 13:48:00,
2013-08-28 07:49:00,59.7,32.0,29.97,SSW,194,2.2,3.6,35,0.00,,---,0.00,VWS V14.01,2013-08-28 13:49:00,
2013-08-28 07:50:00,59.7,32.0,29.97,SSW,193,2.2,3.6,35,0.00,,---,0.00,VWS V14.01,2013-08-28 13:50:00,
2013-08-28 07:52:00,59.9,32.2,29.97,SSW,193,3.6,3.6,35,0.00,,---,0.00,VWS V14.01,2013-08-28 13:52:00,
2013-08-28 07:53:00,60.1,32.4,29.97,SSW,194,4.0,4.0,35,0.00,,---,0.00,VWS V14.01,2013-08-28 13:53:00,
2013-08-28 07:54:00,60.1,32.4,29.97,SSW,194,2.7,4.0,35,0.00,,---,0.00,VWS V14.01,2013-08-28 13:54:00,
2013-08-28 07:55:00,60.1,32.4,29.97,SSW,192,2.7,3.6,35,0.00,,---,0.00,VWS V14.01,2013-08-28 13:55:00,
2013-08-28 07:58:00,60.4,32.7,29.97,South,190,2.7,3.1,35,0.00,,---,0.00,VWS V14.01,2013-08-28 13:58:00,
2013-08-28 07:59:00,60.6,32.8,29.97,South,190,3.1,3.1,35,0.00,,---,0.00,VWS V14.01,2013-08-28 13:59:00,
2013-08-28 08:00:00,60.6,32.8,29.97,SSW,194,3.1,3.1,35,0.00,,---,0.00,VWS V14.01,2013-08-28 14:00:00,
2013-08-28 08:02:00,61.0,32.4,29.97,SSW,195,3.1,3.1,34,0.00,,---,0.00,VWS V14.01,2013-08-28 14:02:00,
2013-08-28 08:03:00,61.2,32.6,29.97,SSW,195,0.0,3.1,34,0.00,,---,0.00,VWS V14.01,2013-08-28 14:03:00,
2013-08-28 08:04:00,61.2,32.6,29.97,SSW,195,2.2,2.7,34,0.00,,---,0.00,VWS V14.01,2013-08-28 14:04:00,
2013-08-28 08:05:00,61.3,32.8,29.97,SSW,192,2.2,2.2,34,0.00,,---,0.00,VWS V14.01,2013-08-28 14:05:00,
2013-08-28 08:07:00,61.7,33.1,29.97,SSW,194,3.1,3.1,34,0.00,,---,0.00,VWS V14.01,2013-08-28 14:07:00,
2013-08-28 08:09:00,61.7,33.1,29.97,South,186,2.2,3.1,34,0.00,,---,0.00,VWS V14.01,2013-08-28 14:09:00,
2013-08-28 08:10:00,61.9,33.2,29.97,South,186,0.0,2.2,34,0.00,,---,0.00,VWS V14.01,2013-08-28 14:10:00,
2013-08-28 08:12:00,62.1,33.4,29.97,South,184,2.2,2.2,34,0.00,,---,0.00,VWS V14.01,2013-08-28 14:12:00,
2013-08-28 08:14:00,62.2,33.5,29.97,SSW,193,3.1,3.1,34,0.00,,---,0.00,VWS V14.01,2013-08-28 14:14:00,
2013-08-28 08:15:00,62.2,33.5,29.97,SSW,196,2.7,3.1,34,0.00,,---,0.00,VWS V14.01,2013-08-28 14:15:00,
2013-08-28 08:17:00,62.2,33.5,29.97,SSW,196,0.0,0.0,34,0.00,,---,0.00,VWS V14.01,2013-08-28 14:17:00,
2013-08-28 08:19:00,62.4,33.7,29.97,SSW,193,2.7,2.7,34,0.00,,---,0.00,VWS V14.01,2013-08-28 14:19:00,
2013-08-28 08:20:00,62.6,33.9,29.97,SSW,193,2.2,2.7,34,0.00,,---,0.00,VWS V14.01,2013-08-28 14:20:00,
2013-08-28 08:22:00,62.8,34.0,29.97,SSW,194,2.7,2.7,34,0.00,,---,0.00,VWS V14.01,2013-08-28 14:22:00,
2013-08-28 08:24:00,62.8,33.3,29.97,SSW,193,2.7,3.6,33,0.00,,---,0.00,VWS V14.01,2013-08-28 14:24:00,
2013-08-28 08:25:00,62.8,33.3,29.97,SSW,193,2.7,2.7,33,0.00,,---,0.00,VWS V14.01,2013-08-28 14:25:00,
2013-08-28 08:27:00,63.0,34.2,29.97,SSW,192,2.2,2.7,34,0.00,,---,0.00,VWS V14.01,2013-08-28 14:27:00,
2013-08-28 08:29:00,63.1,34.3,29.97,SSW,192,2.2,2.7,34,0.00,,---,0.00,VWS V14.01,2013-08-28 14:29:00,
2013-08-28 08:30:00,63.1,34.3,29.97,South,189,2.7,2.7,34,0.00,,---,0.00,VWS V14.01,2013-08-28 14:30:00,
2013-08-28 08:31:00,63.1,34.3,29.97,South,188,2.2,3.6,34,0.00,,---,0.00,VWS V14.01,2013-08-28 14:31:00,
2013-08-28 08:33:00,63.5,33.9,29.97,South,191,0.0,3.1,33,0.00,,---,0.00,VWS V14.01,2013-08-28 14:33:00,
2013-08-28 08:35:00,63.7,34.1,29.97,South,191,0.0,2.7,33,0.00,,---,0.00,VWS V14.01,2013-08-28 14:35:00,
2013-08-28 08:36:00,64.0,34.4,29.97,South,191,0.0,2.2,33,0.00,,---,0.00,VWS V14.01,2013-08-28 14:36:00,
2013-08-28 08:38:00,64.6,34.8,29.97,South,180,2.7,2.7,33,0.00,,---,0.00,VWS V14.01,2013-08-28 14:38:00,
2013-08-28 08:40:00,64.9,35.2,29.97,SSE,161,3.1,3.1,33,0.00,,---,0.00,VWS V14.01,2013-08-28 14:40:00,
2013-08-28 08:41:00,65.5,35.6,29.97,ESE,115,3.1,4.0,33,0.00,,---,0.00,VWS V14.01,2013-08-28 14:41:00,
2013-08-28 08:42:00,65.8,35.2,29.97,ESE,114,0.0,3.1,32,0.00,,---,0.00,VWS V14.01,2013-08-28 14:42:00,
2013-08-28 08:44:00,66.4,34.9,29.97,SE,124,2.7,2.7,31,0.00,,---,0.00,VWS V14.01,2013-08-28 14:44:00,
2013-08-28 08:45:00,66.7,35.2,29.97,SE,126,2.7,2.7,31,0.00,,---,0.00,VWS V14.01,2013-08-28 14:45:00,
2013-08-28 08:46:00,67.3,34.8,29.97,SE,126,0.0,2.7,30,0.00,,---,0.00,VWS V14.01,2013-08-28 14:46:00,
2013-08-28 08:48:00,68.2,33.0,29.97,NE,34,3.1,3.6,27,0.00,,---,0.00,VWS V14.01,2013-08-28 14:48:00,
2013-08-28 08:50:00,68.4,32.2,29.97,NE,36,3.1,3.6,26,0.00,,---,0.00,VWS V14.01,2013-08-28 14:50:00,
2013-08-28 08:51:00,68.2,32.0,29.97,North,11,2.2,3.6,26,0.00,,---,0.00,VWS V14.01,2013-08-28 14:51:00,
2013-08-28 08:53:00,68.2,32.0,29.97,North,10,3.1,3.1,26,0.00,,---,0.00,VWS V14.01,2013-08-28 14:53:00,
2013-08-28 08:55:00,68.0,31.9,29.97,North,0,3.1,3.1,26,0.00,,---,0.00,VWS V14.01,2013-08-28 14:55:00,
2013-08-28 08:56:00,67.8,31.7,29.97,North,0,2.2,3.1,26,0.00,,---,0.00,VWS V14.01,2013-08-28 14:56:00,
2013-08-28 08:57:00,67.8,31.7,29.97,East,98,2.7,2.7,26,0.00,,---,0.00,VWS V14.01,2013-08-28 14:57:00,
2013-08-28 08:59:00,68.2,31.0,29.97,NE,45,2.7,2.7,25,0.00,,---,0.00,VWS V14.01,2013-08-28 14:59:00,
2013-08-28 09:00:00,68.4,31.2,29.97,North,357,3.1,3.1,25,0.00,,---,0.00,VWS V14.01,2013-08-28 15:00:00,
2013-08-28 09:01:00,68.4,31.2,29.97,North,357,0.0,3.6,25,0.00,,---,0.00,VWS V14.01,2013-08-28 15:01:00,
2013-08-28 09:02:00,68.4,31.2,29.97,North,357,0.0,2.7,25,0.00,,---,0.00,VWS V14.01,2013-08-28 15:02:00,
2013-08-28 09:04:00,68.9,31.7,29.97,NE,44,0.0,0.0,25,0.00,,---,0.00,VWS V14.01,2013-08-28 15:04:00,
2013-08-28 09:05:00,68.9,31.7,29.97,NE,44,2.2,2.7,25,0.00,,---,0.00,VWS V14.01,2013-08-28 15:05:00,
2013-08-28 09:06:00,69.3,32.0,29.97,NE,44,0.0,2.2,25,0.00,,---,0.00,VWS V14.01,2013-08-28 15:06:00,
2013-08-28 09:07:00,69.8,32.4,29.97,SE,144,0.0,0.0,25,0.00,,---,0.00,VWS V14.01,2013-08-28 15:07:00,
2013-08-28 09:10:00,70.3,31.9,29.97,South,185,0.0,0.0,24,0.00,,---,0.00,VWS V14.01,2013-08-28 15:10:00,
2013-08-28 09:11:00,70.7,32.2,29.97,South,185,0.0,0.0,24,0.00,,---,0.00,VWS V14.01,2013-08-28 15:11:00,
2013-08-28 09:13:00,71.1,32.5,29.97,SE,132,2.7,3.6,24,0.00,,---,0.00,VWS V14.01,2013-08-28 15:13:00,
2013-08-28 09:15:00,71.8,32.0,29.97,SE,144,2.2,2.7,23,0.00,,---,0.00,VWS V14.01,2013-08-28 15:15:00,
2013-08-28 09:16:00,72.0,32.2,29.97,SE,138,0.0,0.0,23,0.00,,---,0.00,VWS V14.01,2013-08-28 15:16:00,
2013-08-28 09:18:00,72.1,32.3,29.97,NE,45,0.0,2.2,23,0.00,,---,0.00,VWS V14.01,2013-08-28 15:18:00,
2013-08-28 09:20:00,72.3,32.5,29.97,NE,45,0.0,0.0,23,0.00,,---,0.00,VWS V14.01,2013-08-28 15:20:00,
2013-08-28 09:21:00,72.5,32.6,29.97,East,79,0.0,0.0,23,0.00,,---,0.00,VWS V14.01,2013-08-28 15:21:00,
2013-08-28 09:23:00,73.0,32.0,29.97,ENE,76,0.0,2.7,22,0.00,,---,0.00,VWS V14.01,2013-08-28 15:23:00,
2013-08-28 09:25:00,73.6,32.4,29.97,ENE,75,0.0,0.0,22,0.00,,---,0.00,VWS V14.01,2013-08-28 15:25:00,
2013-08-28 09:26:00,73.8,32.6,29.97,North,6,2.7,3.1,22,0.00,,---,0.00,VWS V14.01,2013-08-28 15:26:00,
2013-08-28 09:27:00,73.6,32.4,29.97,North,7,3.1,3.1,22,0.00,,---,0.00,VWS V14.01,2013-08-28 15:27:00,
2013-08-28 09:28:00,73.6,32.4,29.97,North,0,3.6,3.6,22,0.00,,---,0.00,VWS V14.01,2013-08-28 15:28:00,
2013-08-28 09:30:00,73.4,32.3,29.97,North,357,2.2,2.7,22,0.00,,---,0.00,VWS V14.01,2013-08-28 15:30:00,
2013-08-28 09:31:00,73.4,32.3,29.97,North,357,2.2,2.7,22,0.00,,---,0.00,VWS V14.01,2013-08-28 15:31:00,
2013-08-28 09:32:00,73.4,32.3,29.97,North,357,2.7,2.7,22,0.00,,---,0.00,VWS V14.01,2013-08-28 15:32:00,
2013-08-28 09:33:00,73.4,32.3,29.97,NNE,23,3.1,3.1,22,0.00,,---,0.00,VWS V14.01,2013-08-28 15:33:00,
2013-08-28 09:35:00,73.6,31.3,29.97,NNE,21,3.1,3.6,21,0.00,,---,0.00,VWS V14.01,2013-08-28 15:35:00,
2013-08-28 09:36:00,73.6,31.3,29.97,NNE,22,3.1,3.1,21,0.00,,---,0.00,VWS V14.01,2013-08-28 15:36:00,
2013-08-28 09:37:00,73.4,31.1,29.97,NNE,29,3.1,3.6,21,0.00,,---,0.00,VWS V14.01,2013-08-28 15:37:00,
2013-08-28 09:38:00,73.4,31.1,29.97,North,6,3.6,3.6,21,0.00,,---,0.00,VWS V14.01,2013-08-28 15:38:00,
2013-08-28 09:40:00,73.0,32.0,29.97,NNE,14,2.7,3.1,22,0.00,,---,0.00,VWS V14.01,2013-08-28 15:40:00,
2013-08-28 09:41:00,73.0,32.0,29.97,NNE,14,3.1,4.0,22,0.00,,---,0.00,VWS V14.01,2013-08-28 15:41:00,
2013-08-28 09:42:00,73.0,32.0,29.97,NNE,12,3.1,3.1,22,0.00,,---,0.00,VWS V14.01,2013-08-28 15:42:00,
2013-08-28 09:43:00,73.0,32.0,29.97,NE,50,2.7,2.7,22,0.00,,---,0.00,VWS V14.01,2013-08-28 15:43:00,
2013-08-28 09:45:00,73.2,32.1,29.97,NE,51,2.7,3.6,22,0.00,,---,0.00,VWS V14.01,2013-08-28 15:45:00,
2013-08-28 09:46:00,73.4,32.3,29.97,North,357,3.1,3.1,22,0.00,,---,0.00,VWS V14.01,2013-08-28 15:46:00,
2013-08-28 09:47:00,73.4,32.3,29.97,North,11,3.1,3.6,22,0.00,,---,0.00,VWS V14.01,2013-08-28 15:47:00,
2013-08-28 09:48:00,73.4,32.3,29.97,North,9,3.1,3.6,22,0.00,,---,0.00,VWS V14.01,2013-08-28 15:48:00,
2013-08-28 09:49:00,73.4,32.3,29.97,North,11,4.0,4.0,22,0.00,,---,0.00,VWS V14.01,2013-08-28 15:49:00,
2013-08-28 09:50:00,73.4,32.3,29.97,NNE,25,2.7,4.0,22,0.00,,---,0.00,VWS V14.01,2013-08-28 15:50:00,
2013-08-28 09:51:00,73.4,32.3,29.97,NNE,27,2.2,3.1,22,0.00,,---,0.00,VWS V14.01,2013-08-28 15:51:00,
2013-08-28 09:52:00,73.4,32.3,29.97,NNE,27,2.7,3.1,22,0.00,,---,0.00,VWS V14.01,2013-08-28 15:52:00,
2013-08-28 09:53:00,73.4,32.3,29.97,North,4,5.4,5.4,22,0.00,,---,0.00,VWS V14.01,2013-08-28 15:53:00,
2013-08-28 09:54:00,73.4,32.3,29.97,North,7,2.7,4.9,22,0.00,,---,0.00,VWS V14.01,2013-08-28 15:54:00,
2013-08-28 09:56:00,73.4,32.3,29.97,NNE,30,3.1,3.1,22,0.00,,---,0.00,VWS V14.01,2013-08-28 15:56:00,
2013-08-28 09:57:00,73.4,32.3,29.97,NNE,23,3.6,3.6,22,0.00,,---,0.00,VWS V14.01,2013-08-28 15:57:00,
2013-08-28 09:58:00,73.4,32.3,29.94,North,8,2.2,3.6,22,0.00,,---,0.00,VWS V14.01,2013-08-28 15:58:00,
2013-08-28 09:59:00,73.6,32.4,29.94,East,99,3.1,3.1,22,0.00,,---,0.00,VWS V14.01,2013-08-28 15:59:00,
2013-08-28 10:00:00,73.6,32.4,29.94,ESE,102,3.1,3.1,22,0.00,,---,0.00,VWS V14.01,2013-08-28 16:00:00,
2013-08-28 10:01:00,73.8,32.6,29.94,ESE,105,3.6,3.6,22,0.00,,---,0.00,VWS V14.01,2013-08-28 16:01:00,
2013-08-28 10:02:00,74.3,33.0,29.94,ENE,72,0.0,2.7,22,0.00,,---,0.00,VWS V14.01,2013-08-28 16:02:00,
2013-08-28 10:03:00,74.8,33.5,29.94,NNE,14,3.6,4.0,22,0.00,,---,0.00,VWS V14.01,2013-08-28 16:03:00,
2013-08-28 10:05:00,74.8,32.3,29.94,North,357,3.6,4.0,21,0.00,,---,0.00,VWS V14.01,2013-08-28 16:05:00,
2013-08-28 10:06:00,74.5,32.0,29.94,North,357,4.5,4.5,21,0.00,,---,0.00,VWS V14.01,2013-08-28 16:06:00,
2013-08-28 10:07:00,74.5,32.0,29.94,North,8,3.1,4.9,21,0.00,,---,0.00,VWS V14.01,2013-08-28 16:07:00,
2013-08-28 10:08:00,74.1,31.7,29.94,North,3,3.6,3.6,21,0.00,,---,0.00,VWS V14.01,2013-08-28 16:08:00,
2013-08-28 10:10:00,73.9,31.6,29.94,NNW,332,3.1,4.9,21,0.00,,---,0.00,VWS V14.01,2013-08-28 16:10:00,
2013-08-28 10:11:00,73.9,31.6,29.94,North,357,4.9,4.9,21,0.00,,---,0.00,VWS V14.01,2013-08-28 16:11:00,
2013-08-28 10:12:00,74.1,31.7,29.94,North,357,0.0,3.6,21,0.00,,---,0.00,VWS V14.01,2013-08-28 16:12:00,
2013-08-28 10:13:00,74.1,31.7,29.97,North,4,3.6,4.0,21,0.00,,---,0.00,VWS V14.01,2013-08-28 16:13:00,
2013-08-28 10:15:00,74.1,31.7,29.97,North,1,3.1,4.0,21,0.00,,---,0.00,VWS V14.01,2013-08-28 16:15:00,
2013-08-28 10:16:00,74.1,31.7,29.97,North,4,3.6,3.6,21,0.00,,---,0.00,VWS V14.01,2013-08-28 16:16:00,
2013-08-28 10:17:00,74.3,31.9,29.97,NNE,15,3.1,3.1,21,0.00,,---,0.00,VWS V14.01,2013-08-28 16:17:00,
2013-08-28 10:19:00,74.3,31.9,29.97,North,10,2.7,4.0,21,0.00,,---,0.00,VWS V14.01,2013-08-28 16:19:00,
2013-08-28 10:20:00,74.5,32.0,29.97,North,357,3.6,4.0,21,0.00,,---,0.00,VWS V14.01,2013-08-28 16:20:00,
2013-08-28 10:21:00,74.7,32.2,29.97,NNE,12,3.6,3.6,21,0.00,,---,0.00,VWS V14.01,2013-08-28 16:21:00,
2013-08-28 10:22:00,74.7,32.2,29.97,North,8,0.0,4.0,21,0.00,,---,0.00,VWS V14.01,2013-08-28 16:22:00,
2013-08-28 10:24:00,74.7,32.2,29.97,NE,36,4.0,5.4,21,0.00,,---,0.00,VWS V14.01,2013-08-28 16:24:00,
2013-08-28 10:26:00,75.0,32.5,29.97,NNE,16,3.6,3.6,21,0.00,,---,0.00,VWS V14.01,2013-08-28 16:26:00,
2013-08-28 10:27:00,75.0,32.5,29.97,NNE,14,4.9,4.9,21,0.00,,---,0.00,VWS V14.01,2013-08-28 16:27:00,
2013-08-28 10:29:00,75.2,32.6,29.94,North,5,3.1,4.0,21,0.00,,---,0.00,VWS V14.01,2013-08-28 16:29:00,
2013-08-28 10:31:00,75.4,32.8,29.94,NNE,31,4.0,4.9,21,0.00,,---,0.00,VWS V14.01,2013-08-28 16:31:00,
2013-08-28 10:32:00,75.4,32.8,29.94,NNE,29,2.7,4.9,21,0.00,,---,0.00,VWS V14.01,2013-08-28 16:32:00,
2013-08-28 10:35:00,75.6,32.9,29.94,North,9,4.0,4.0,21,0.00,,---,0.00,VWS V14.01,2013-08-28 16:35:00,
2013-08-28 10:36:00,75.6,32.9,29.94,NNE,12,4.0,4.0,21,0.00,,---,0.00,VWS V14.01,2013-08-28 16:36:00,
2013-08-28 10:37:00,75.7,33.1,29.94,East,84,2.7,4.0,21,0.00,,---,0.00,VWS V14.01,2013-08-28 16:37:00,
2013-08-28 10:40:00,76.5,33.7,29.94,North,3,2.7,2.7,21,0.00,,---,0.00,VWS V14.01,2013-08-28 16:40:00,
2013-08-28 10:41:00,76.6,33.8,29.94,NNE,23,3.1,3.1,21,0.00,,---,0.00,VWS V14.01,2013-08-28 16:41:00,
2013-08-28 10:42:00,76.8,34.0,29.94,North,11,4.0,4.0,21,0.00,,---,0.00,VWS V14.01,2013-08-28 16:42:00,
2013-08-28 10:46:00,77.2,33.0,29.97,North,0,3.6,4.0,20,0.00,,---,0.00,VWS V14.01,2013-08-28 16:46:00,
2013-08-28 10:47:00,77.2,33.0,29.97,North,5,3.1,3.1,20,0.00,,---,0.00,VWS V14.01,2013-08-28 16:47:00,
2013-08-28 10:48:00,77.2,33.0,29.97,North,11,3.1,4.0,20,0.00,,---,0.00,VWS V14.01,2013-08-28 16:48:00,
2013-08-28 10:51:00,77.5,33.3,29.97,North,357,4.0,4.0,20,0.00,,---,0.00,VWS V14.01,2013-08-28 16:51:00,
2013-08-28 10:52:00,77.7,33.5,29.97,North,3,4.9,4.9,20,0.00,,---,0.00,VWS V14.01,2013-08-28 16:52:00,
2013-08-28 10:53:00,77.7,33.5,29.97,NNE,16,3.6,4.9,20,0.00,,---,0.00,VWS V14.01,2013-08-28 16:53:00,
2013-08-28 10:56:00,77.4,33.2,29.97,NNE,28,3.1,4.0,20,0.00,,---,0.00,VWS V14.01,2013-08-28 16:56:00,
2013-08-28 10:57:00,77.2,33.0,29.97,North,0,3.1,3.1,20,0.00,,---,0.00,VWS V14.01,2013-08-28 16:57:00,
2013-08-28 10:58:00,77.2,33.0,29.97,North,8,3.6,3.6,20,0.00,,---,0.00,VWS V14.01,2013-08-28 16:58:00,
2013-08-28 10:59:00,77.4,33.2,29.97,North,357,2.7,3.6,20,0.00,,---,0.00,VWS V14.01,2013-08-28 16:59:00,
2013-08-28 11:01:00,77.4,33.2,29.97,NE,47,3.1,3.1,20,0.00,,---,0.00,VWS V14.01,2013-08-28 17:01:00,
2013-08-28 11:03:00,77.5,33.3,29.97,East,87,4.0,4.0,20,0.00,,---,0.00,VWS V14.01,2013-08-28 17:03:00,
2013-08-28 11:04:00,77.7,33.5,29.97,NE,55,2.2,4.0,20,0.00,,---,0.00,VWS V14.01,2013-08-28 17:04:00,
2013-08-28 11:05:00,77.9,33.6,29.97,NE,36,3.1,3.6,20,0.00,,---,0.00,VWS V14.01,2013-08-28 17:05:00,
2013-08-28 11:06:00,78.1,33.8,29.97,NNE,14,2.2,3.1,20,0.00,,---,0.00,VWS V14.01,2013-08-28 17:06:00,
2013-08-28 11:07:00,78.3,33.9,29.97,NNE,24,0.0,2.7,20,0.00,,---,0.00,VWS V14.01,2013-08-28 17:07:00,
2013-08-28 11:08:00,78.4,34.1,29.97,NE,41,2.2,2.2,20,0.00,,---,0.00,VWS V14.01,2013-08-28 17:08:00,
2013-08-28 11:09:00,78.4,34.1,29.97,NE,39,3.1,3.1,20,0.00,,---,0.00,VWS V14.01,2013-08-28 17:09:00,
2013-08-28 11:11:00,78.8,34.4,29.97,NNE,17,3.1,4.0,20,0.00,,---,0.00,VWS V14.01,2013-08-28 17:11:00,
2013-08-28 11:12:00,78.8,34.4,29.97,North,8,0.0,2.7,20,0.00,,---,0.00,VWS V14.01,2013-08-28 17:12:00,
2013-08-28 11:13:00,78.8,34.4,29.97,NE,44,2.2,2.7,20,0.00,,---,0.00,VWS V14.01,2013-08-28 17:13:00,
2013-08-28 11:14:00,79.0,34.5,29.97,NNE,22,4.0,4.0,20,0.00,,---,0.00,VWS V14.01,2013-08-28 17:14:00,
2013-08-28 11:16:00,79.2,30.6,29.97,NNE,27,3.6,4.0,17,0.00,,---,0.00,VWS V14.01,2013-08-28 17:16:00,
2013-08-28 11:17:00,79.2,30.6,29.97,NNE,30,0.0,2.7,17,0.00,,---,0.00,VWS V14.01,2013-08-28 17:17:00,
2013-08-28 11:18:00,79.2,30.6,29.97,NNE,19,2.7,3.1,17,0.00,,---,0.00,VWS V14.01,2013-08-28 17:18:00,
2013-08-28 11:19:00,79.2,30.6,29.97,North,357,3.6,3.6,17,0.00,,---,0.00,VWS V14.01,2013-08-28 17:19:00,
2013-08-28 11:21:00,79.3,30.8,29.97,North,9,3.1,4.9,17,0.00,,---,0.00,VWS V14.01,2013-08-28 17:21:00,
2013-08-28 11:22:00,79.5,30.9,29.97,NNW,328,3.1,3.1,17,0.00,,---,0.00,VWS V14.01,2013-08-28 17:22:00,
2013-08-28 11:23:00,79.5,30.9,29.97,NNW,345,2.2,2.7,17,0.00,,---,0.00,VWS V14.01,2013-08-28 17:23:00,
2013-08-28 11:24:00,79.7,31.1,29.97,North,357,3.1,3.1,17,0.00,,---,0.00,VWS V14.01,2013-08-28 17:24:00,
2013-08-28 11:27:00,79.9,31.2,29.97,East,96,3.1,3.1,17,0.00,,---,0.00,VWS V14.01,2013-08-28 17:27:00,
2013-08-28 11:28:00,80.4,31.7,29.97,North,7,2.7,3.6,17,0.00,,---,0.00,VWS V14.01,2013-08-28 17:28:00,
2013-08-28 11:29:00,80.4,31.7,29.97,North,4,2.2,4.0,17,0.00,,---,0.00,VWS V14.01,2013-08-28 17:29:00,
2013-08-28 11:30:00,80.6,31.8,29.97,North,5,0.0,2.2,17,0.00,,---,0.00,VWS V14.01,2013-08-28 17:30:00,
2013-08-28 11:32:00,81.3,32.4,29.97,East,98,2.2,3.6,17,0.00,,---,0.00,VWS V14.01,2013-08-28 17:32:00,
2013-08-28 11:33:00,81.5,32.5,29.97,North,2,3.6,4.9,17,0.00,,---,0.00,VWS V14.01,2013-08-28 17:33:00,
2013-08-28 11:35:00,81.5,32.5,29.97,NE,41,4.9,4.9,17,0.00,,---,0.00,VWS V14.01,2013-08-28 17:35:00,
2013-08-28 11:38:00,81.1,32.2,29.97,NNE,31,4.0,4.0,17,0.00,,---,0.00,VWS V14.01,2013-08-28 17:38:00,
2013-08-28 11:40:00,81.0,32.1,29.97,NW,315,2.7,4.0,17,0.00,,---,0.00,VWS V14.01,2013-08-28 17:40:00,
2013-08-28 11:41:00,81.0,32.1,29.97,North,357,4.0,4.0,17,0.00,,---,0.00,VWS V14.01,2013-08-28 17:41:00,
2013-08-28 11:43:00,81.0,32.1,29.97,North,0,3.1,3.6,17,0.00,,---,0.00,VWS V14.01,2013-08-28 17:43:00,
2013-08-28 11:45:00,81.0,32.1,29.94,South,187,4.0,8.7,17,0.00,,---,0.00,VWS V14.01,2013-08-28 17:45:00,
2013-08-28 11:46:00,81.1,32.2,29.94,South,186,3.1,4.0,17,0.00,,---,0.00,VWS V14.01,2013-08-28 17:46:00,
2013-08-28 11:48:00,81.0,27.3,29.94,South,189,4.9,6.3,14,0.00,,---,0.00,VWS V14.01,2013-08-28 17:48:00,
2013-08-28 11:49:00,80.8,27.2,29.94,SSW,201,4.9,4.9,14,0.00,,---,0.00,VWS V14.01,2013-08-28 17:49:00,
2013-08-28 11:50:00,80.6,27.0,29.94,ESE,106,5.8,5.8,14,0.00,,---,0.00,VWS V14.01,2013-08-28 17:50:00,
2013-08-28 11:51:00,80.6,27.0,29.94,ESE,114,4.0,5.8,14,0.00,,---,0.00,VWS V14.01,2013-08-28 17:51:00,
2013-08-28 11:52:00,80.6,27.0,29.94,ESE,115,0.0,4.0,14,0.00,,---,0.00,VWS V14.01,2013-08-28 17:52:00,
2013-08-28 11:53:00,80.8,27.2,29.94,ESE,118,2.7,2.7,14,0.00,,---,0.00,VWS V14.01,2013-08-28 17:53:00,
2013-08-28 11:54:00,81.1,27.5,29.94,ENE,59,3.1,3.1,14,0.00,,---,0.00,VWS V14.01,2013-08-28 17:54:00,
2013-08-28 11:55:00,81.3,27.6,29.94,North,353,3.6,3.6,14,0.00,,---,0.00,VWS V14.01,2013-08-28 17:55:00,
2013-08-28 11:56:00,81.7,27.9,29.94,SW,214,4.0,4.0,14,0.00,,---,0.00,VWS V14.01,2013-08-28 17:56:00,
2013-08-28 11:57:00,82.0,28.2,29.94,South,187,3.6,4.9,14,0.00,,---,0.00,VWS V14.01,2013-08-28 17:57:00,
2013-08-28 11:58:00,82.4,28.5,29.94,ENE,76,4.0,5.4,14,0.00,,---,0.00,VWS V14.01,2013-08-28 17:58:00,
2013-08-28 11:59:00,82.4,28.5,29.97,ESE,108,3.6,4.0,14,0.00,,---,0.00,VWS V14.01,2013-08-28 17:59:00,
2013-08-28 12:00:00,82.6,28.6,29.97,ESE,117,2.7,4.0,14,0.00,,---,0.00,VWS V14.01,2013-08-28 18:00:00,
2013-08-28 12:01:00,82.8,28.8,29.97,South,189,8.1,8.1,14,0.00,,---,0.00,VWS V14.01,2013-08-28 18:01:00,
2013-08-28 12:02:00,82.9,28.9,29.97,SW,227,4.0,8.7,14,0.00,,---,0.00,VWS V14.01,2013-08-28 18:02:00,
2013-08-28 12:03:00,82.9,28.9,29.97,SW,228,2.2,4.9,14,0.00,,---,0.00,VWS V14.01,2013-08-28 18:03:00,
2013-08-28 12:04:00,83.1,29.0,29.97,South,183,4.9,4.9,14,0.00,,---,0.00,VWS V14.01,2013-08-28 18:04:00,
2013-08-28 12:05:00,83.3,29.2,29.97,SSW,208,3.1,4.0,14,0.00,,---,0.00,VWS V14.01,2013-08-28 18:05:00,
2013-08-28 12:07:00,83.3,29.2,29.97,North,353,3.1,3.1,14,0.00,,---,0.00,VWS V14.01,2013-08-28 18:07:00,
2013-08-28 12:08:00,83.1,29.0,29.97,SSE,161,3.6,3.6,14,0.00,,---,0.00,VWS V14.01,2013-08-28 18:08:00,
2013-08-28 12:09:00,82.9,28.9,29.97,NW,320,0.0,3.6,14,0.00,,---,0.00,VWS V14.01,2013-08-28 18:09:00,
2013-08-28 12:10:00,82.9,28.9,29.97,South,188,3.6,4.0,14,0.00,,---,0.00,VWS V14.01,2013-08-28 18:10:00,
2013-08-28 12:11:00,82.8,28.8,29.97,West,274,3.6,3.6,14,0.00,,---,0.00,VWS V14.01,2013-08-28 18:11:00,
2013-08-28 12:12:00,82.6,28.6,29.97,NW,316,3.1,3.6,14,0.00,,---,0.00,VWS V14.01,2013-08-28 18:12:00,
2013-08-28 12:13:00,82.8,28.8,29.97,NNW,346,2.7,3.1,14,0.00,,---,0.00,VWS V14.01,2013-08-28 18:13:00,
2013-08-28 12:14:00,82.9,28.9,29.94,NW,317,2.7,2.7,14,0.00,,---,0.00,VWS V14.01,2013-08-28 18:14:00,
2013-08-28 12:15:00,83.3,29.2,29.94,SSE,168,2.7,3.6,14,0.00,,---,0.00,VWS V14.01,2013-08-28 18:15:00,
2013-08-28 12:16:00,83.5,29.3,29.94,SSW,195,2.2,3.6,14,0.00,,---,0.00,VWS V14.01,2013-08-28 18:16:00,
2013-08-28 12:18:00,84.0,29.8,29.94,SSW,200,4.9,5.4,14,0.00,,---,0.00,VWS V14.01,2013-08-28 18:18:00,
2013-08-28 12:19:00,84.4,28.2,29.94,NNE,30,2.2,5.8,13,0.00,,---,0.00,VWS V14.01,2013-08-28 18:19:00,
2013-08-28 12:20:00,84.4,28.2,29.94,ESE,107,2.7,3.6,13,0.00,,---,0.00,VWS V14.01,2013-08-28 18:20:00,
2013-08-28 12:21:00,84.6,28.4,29.94,ESE,107,0.0,3.6,13,0.00,,---,0.00,VWS V14.01,2013-08-28 18:21:00,
2013-08-28 12:23:00,85.1,24.7,29.94,North,0,3.6,5.4,11,0.00,,---,0.00,VWS V14.01,2013-08-28 18:23:00,
2013-08-28 12:24:00,84.9,24.6,29.94,East,99,2.2,3.1,11,0.00,,---,0.00,VWS V14.01,2013-08-28 18:24:00,
2013-08-28 12:26:00,85.1,24.7,29.94,SW,222,2.7,3.1,11,0.00,,---,0.00,VWS V14.01,2013-08-28 18:26:00,
2013-08-28 12:28:00,85.3,24.9,29.94,North,0,5.4,5.4,11,0.00,,---,0.00,VWS V14.01,2013-08-28 18:28:00,
2013-08-28 12:30:00,84.9,24.6,29.94,NNW,342,8.3,8.3,11,0.00,,---,0.00,VWS V14.01,2013-08-28 18:30:00,
2013-08-28 12:31:00,84.7,24.5,29.94,WSW,248,3.1,4.9,11,0.00,,---,0.00,VWS V14.01,2013-08-28 18:31:00,
2013-08-28 12:33:00,84.4,24.2,29.94,South,171,0.0,2.7,11,0.00,,---,0.00,VWS V14.01,2013-08-28 18:33:00,
2013-08-28 12:35:00,84.4,24.2,29.94,SE,126,2.7,3.6,11,0.00,,---,0.00,VWS V14.01,2013-08-28 18:35:00,
2013-08-28 12:36:00,84.2,24.0,29.94,SSW,204,3.6,3.6,11,0.00,,---,0.00,VWS V14.01,2013-08-28 18:36:00,
2013-08-28 12:38:00,83.8,23.8,29.94,South,189,4.0,4.9,11,0.00,,---,0.00,VWS V14.01,2013-08-28 18:38:00,
2013-08-28 12:39:00,83.8,23.8,29.94,SSW,197,3.6,5.8,11,0.00,,---,0.00,VWS V14.01,2013-08-28 18:39:00,
2013-08-28 12:40:00,83.5,23.5,29.94,SSW,199,6.3,6.3,11,0.00,,---,0.00,VWS V14.01,2013-08-28 18:40:00,
2013-08-28 12:41:00,83.3,23.4,29.94,SSW,199,4.0,6.3,11,0.00,,---,0.00,VWS V14.01,2013-08-28 18:41:00,
2013-08-28 12:43:00,82.9,23.1,29.94,South,191,5.8,8.7,11,0.00,,---,0.00,VWS V14.01,2013-08-28 18:43:00,
2013-08-28 12:44:00,82.8,23.0,29.94,SW,216,5.4,8.7,11,0.00,,---,0.00,VWS V14.01,2013-08-28 18:44:00,
2013-08-28 12:45:00,82.6,28.6,29.94,SSW,200,5.8,5.8,14,0.00,,---,0.00,VWS V14.01,2013-08-28 18:45:00,
2013-08-28 12:46:00,82.4,28.5,29.94,SSW,195,5.4,5.4,14,0.00,,---,0.00,VWS V14.01,2013-08-28 18:46:00,
2013-08-28 12:48:00,82.2,28.3,29.94,SW,218,3.6,6.3,14,0.00,,---,0.00,VWS V14.01,2013-08-28 18:48:00,
2013-08-28 12:49:00,82.0,28.2,29.94,SW,218,3.1,4.9,14,0.00,,---,0.00,VWS V14.01,2013-08-28 18:49:00,
2013-08-28 12:50:00,81.9,28.0,29.94,SSW,203,4.9,5.8,14,0.00,,---,0.00,VWS V14.01,2013-08-28 18:50:00,
2013-08-28 12:51:00,81.9,28.0,29.94,WNW,292,2.7,3.6,14,0.00,,---,0.00,VWS V14.01,2013-08-28 18:51:00,
2013-08-28 12:53:00,81.9,28.0,29.94,West,275,3.6,4.0,14,0.00,,---,0.00,VWS V14.01,2013-08-28 18:53:00,
2013-08-28 12:55:00,82.0,28.2,29.94,NW,314,4.0,5.8,14,0.00,,---,0.00,VWS V14.01,2013-08-28 18:55:00,
2013-08-28 12:56:00,82.0,24.5,29.94,NNW,331,5.4,5.4,12,0.00,,---,0.00,VWS V14.01,2013-08-28 18:56:00,
2013-08-28 12:57:00,81.9,24.3,29.94,North,0,6.3,6.3,12,0.00,,---,0.00,VWS V14.01,2013-08-28 18:57:00,
2013-08-28 12:58:00,81.5,24.0,29.94,West,261,5.4,5.8,12,0.00,,---,0.00,VWS V14.01,2013-08-28 18:58:00,
2013-08-28 12:59:00,81.3,23.9,29.94,WSW,243,4.9,5.8,12,0.00,,---,0.00,VWS V14.01,2013-08-28 18:59:00,
2013-08-28 13:00:00,81.1,23.8,29.94,NNW,333,4.0,4.0,12,0.00,,---,0.00,VWS V14.01,2013-08-28 19:00:00,
2013-08-28 13:01:00,80.8,27.2,29.94,NW,326,2.7,3.1,14,0.00,,---,0.00,VWS V14.01,2013-08-28 19:01:00,
2013-08-28 13:03:00,80.4,28.6,29.94,NW,317,4.0,4.9,15,0.00,,---,0.00,VWS V14.01,2013-08-28 19:03:00,
2013-08-28 13:05:00,80.2,28.4,29.94,NW,320,3.6,4.5,15,0.00,,---,0.00,VWS V14.01,2013-08-28 19:05:00,
2013-08-28 13:06:00,80.1,28.3,29.94,North,0,7.6,7.6,15,0.00,,---,0.00,VWS V14.01,2013-08-28 19:06:00,
2013-08-28 13:07:00,79.9,28.1,29.94,North,1,6.3,7.6,15,0.00,,---,0.00,VWS V14.01,2013-08-28 19:07:00,
2013-08-28 13:08:00,79.5,27.9,29.94,North,350,6.3,6.3,15,0.00,,---,0.00,VWS V14.01,2013-08-28 19:08:00,
2013-08-28 13:10:00,79.2,27.6,29.94,North,357,4.0,4.0,15,0.00,,---,0.00,VWS V14.01,2013-08-28 19:10:00,
2013-08-28 13:11:00,79.0,27.4,29.94,NW,307,3.6,5.8,15,0.00,,---,0.00,VWS V14.01,2013-08-28 19:11:00,
2013-08-28 13:12:00,78.8,27.3,29.94,NW,305,4.0,4.0,15,0.00,,---,0.00,VWS V14.01,2013-08-28 19:12:00,
2013-08-28 13:13:00,78.6,27.1,29.97,NNW,331,3.6,5.8,15,0.00,,---,0.00,VWS V14.01,2013-08-28 19:13:00,
2013-08-28 13:14:00,78.6,27.1,29.97,NNW,331,3.6,5.8,15,0.00,,---,0.00,VWS V14.01,2013-08-28 19:14:00,
2013-08-28 13:15:00,78.4,27.0,29.97,NNW,330,3.6,3.6,15,0.00,,---,0.00,VWS V14.01,2013-08-28 19:15:00,
2013-08-28 13:16:00,78.4,27.0,29.97,NNW,330,3.6,3.6,15,0.00,,---,0.00,VWS V14.01,2013-08-28 19:16:00,
2013-08-28 13:17:00,78.3,26.9,29.97,North,0,5.8,6.3,15,0.00,,---,0.00,VWS V14.01,2013-08-28 19:17:00,
2013-08-28 13:18:00,78.1,26.7,29.97,NW,308,4.0,6.3,15,0.00,,---,0.00,VWS V14.01,2013-08-28 19:18:00,
2013-08-28 13:19:00,77.9,26.6,29.97,North,357,4.9,4.9,15,0.00,,---,0.00,VWS V14.01,2013-08-28 19:19:00,
2013-08-28 13:20:00,77.7,26.4,29.97,NW,317,3.6,6.3,15,0.00,,---,0.00,VWS V14.01,2013-08-28 19:20:00,
2013-08-28 13:21:00,77.5,26.3,29.97,NNW,340,7.2,7.2,15,0.00,,---,0.00,VWS V14.01,2013-08-28 19:21:00,
2013-08-28 13:22:00,77.4,26.1,29.97,NW,325,5.4,5.4,15,0.00,,---,0.00,VWS V14.01,2013-08-28 19:22:00,
2013-08-28 13:23:00,77.0,25.9,29.97,NNW,343,2.7,5.8,15,0.00,,---,0.00,VWS V14.01,2013-08-28 19:23:00,
2013-08-28 13:24:00,77.0,25.9,29.97,NW,319,4.5,5.8,15,0.00,,---,0.00,VWS V14.01,2013-08-28 19:24:00,
2013-08-28 13:25:00,76.6,25.6,29.97,North,350,3.1,4.0,15,0.00,,---,0.00,VWS V14.01,2013-08-28 19:25:00,
2013-08-28 13:26:00,76.6,25.6,29.97,NW,304,2.7,4.0,15,0.00,,---,0.00,VWS V14.01,2013-08-28 19:26:00,
2013-08-28 13:28:00,76.3,25.3,29.97,NW,320,2.7,4.9,15,0.00,,---,0.00,VWS V14.01,2013-08-28 19:28:00,
2013-08-28 13:29:00,76.1,25.1,29.97,NW,326,3.6,4.0,15,0.00,,---,0.00,VWS V14.01,2013-08-28 19:29:00,
2013-08-28 13:31:00,76.1,25.1,29.97,NNW,327,4.0,4.0,15,0.00,,---,0.00,VWS V14.01,2013-08-28 19:31:00,
2013-08-28 13:33:00,75.9,25.0,29.97,North,357,3.1,4.0,15,0.00,,---,0.00,VWS V14.01,2013-08-28 19:33:00,
2013-08-28 13:34:00,75.9,25.0,29.97,North,357,3.1,3.1,15,0.00,,---,0.00,VWS V14.01,2013-08-28 19:34:00,
2013-08-28 13:36:00,75.6,24.7,29.97,North,357,2.7,3.6,15,0.00,,---,0.00,VWS V14.01,2013-08-28 19:36:00,
2013-08-28 13:37:00,75.6,24.7,29.97,North,357,0.0,3.1,15,0.00,,---,0.00,VWS V14.01,2013-08-28 19:37:00,
2013-08-28 13:39:00,75.4,24.6,29.97,North,357,0.0,0.0,15,0.00,,---,0.00,VWS V14.01,2013-08-28 19:39:00,
2013-08-28 13:40:00,75.4,24.6,29.97,North,357,0.0,0.0,15,0.00,,---,0.00,VWS V14.01,2013-08-28 19:40:00,
2013-08-28 13:41:00,75.2,24.4,29.97,North,357,0.0,2.7,15,0.00,,---,0.00,VWS V14.01,2013-08-28 19:41:00,
2013-08-28 13:42:00,75.2,28.8,29.97,North,357,2.2,2.2,18,0.00,,---,0.00,VWS V14.01,2013-08-28 19:42:00,
2013-08-28 13:44:00,75.0,28.7,29.97,SSW,206,2.7,3.1,18,0.00,,---,0.00,VWS V14.01,2013-08-28 19:44:00,
2013-08-28 13:45:00,75.0,28.7,29.97,SSW,206,2.2,2.7,18,0.00,,---,0.00,VWS V14.01,2013-08-28 19:45:00,
2013-08-28 13:46:00,74.8,32.3,29.97,SSW,200,3.6,4.9,21,0.00,,---,0.00,VWS V14.01,2013-08-28 19:46:00,
2013-08-28 13:47:00,74.7,32.2,29.97,SW,218,2.2,3.6,21,0.00,,---,0.00,VWS V14.01,2013-08-28 19:47:00,
2013-08-28 13:49:00,74.1,32.9,29.97,SW,229,0.0,0.0,22,0.00,,---,0.00,VWS V14.01,2013-08-28 19:49:00,
2013-08-28 13:50:00,73.9,33.8,29.97,SW,229,0.0,0.0,23,0.00,,---,0.00,VWS V14.01,2013-08-28 19:50:00,
2013-08-28 13:51:00,73.0,37.1,29.97,SW,229,0.0,0.0,27,0.00,,---,0.00,VWS V14.01,2013-08-28 19:51:00,
2013-08-28 13:52:00,72.7,38.6,29.97,SW,229,0.0,0.0,29,0.00,,---,0.00,VWS V14.01,2013-08-28 19:52:00,
2013-08-28 13:54:00,71.6,40.2,29.97,SW,229,0.0,0.0,32,0.00,,---,0.00,VWS V14.01,2013-08-28 19:54:00,
2013-08-28 13:55:00,70.5,39.3,29.97,SW,225,4.0,4.0,32,0.00,,---,0.00,VWS V14.01,2013-08-28 19:55:00,
2013-08-28 13:56:00,69.8,40.9,29.97,SW,236,3.1,4.5,35,0.00,,---,0.00,VWS V14.01,2013-08-28 19:56:00,
2013-08-28 13:57:00,69.6,40.0,29.97,SW,236,2.2,3.6,34,0.00,,---,0.00,VWS V14.01,2013-08-28 19:57:00,
2013-08-28 13:59:00,69.1,40.3,30.00,SSW,206,2.7,2.7,35,0.00,,---,0.00,VWS V14.01,2013-08-28 19:59:00,
2013-08-28 14:01:00,68.5,39.8,30.00,SSW,202,7.6,7.6,35,0.00,,---,0.00,VWS V14.01,2013-08-28 20:01:00,
2013-08-28 14:02:00,68.5,39.8,30.00,SSW,205,11.9,11.9,35,0.00,,---,0.00,VWS V14.01,2013-08-28 20:02:00,
2013-08-28 14:04:00,68.5,38.3,30.00,SSW,211,8.1,8.7,33,0.00,,---,0.00,VWS V14.01,2013-08-28 20:04:00,
2013-08-28 14:06:00,68.5,39.1,30.00,SSW,208,8.1,8.1,34,0.00,,---,0.00,VWS V14.01,2013-08-28 20:06:00,
2013-08-28 14:07:00,68.5,39.1,30.00,SW,229,10.5,10.5,34,0.00,,---,0.00,VWS V14.01,2013-08-28 20:07:00,
2013-08-28 14:08:00,68.5,38.3,30.00,SSW,207,7.6,10.5,33,0.00,,---,0.00,VWS V14.01,2013-08-28 20:08:00,
2013-08-28 14:09:00,68.4,38.2,30.00,SW,229,5.8,8.1,33,0.00,,---,0.00,VWS V14.01,2013-08-28 20:09:00,
2013-08-28 14:12:00,68.2,40.2,30.00,SSW,213,5.8,5.8,36,0.00,,---,0.00,VWS V14.01,2013-08-28 20:12:00,
2013-08-28 14:13:00,68.0,42.1,30.00,SW,224,3.6,4.9,39,0.00,,---,0.00,VWS V14.01,2013-08-28 20:13:00,
2013-08-28 14:14:00,67.3,44.0,30.03,SW,227,2.7,2.7,43,0.00,,---,0.00,VWS V14.01,2013-08-28 20:14:00,
2013-08-28 14:17:00,66.4,44.4,30.03,WSW,254,0.0,3.6,45,0.00,,---,0.00,VWS V14.01,2013-08-28 20:17:00,
2013-08-28 14:18:00,66.0,44.1,30.03,South,171,4.0,4.0,45,0.00,,---,0.00,VWS V14.01,2013-08-28 20:18:00,
2013-08-28 14:19:00,65.5,44.7,30.03,SSW,210,2.7,3.6,47,0.00,,---,0.00,VWS V14.01,2013-08-28 20:19:00,
2013-08-28 14:22:00,64.6,43.9,30.03,SSW,202,3.1,4.0,47,0.00,,---,0.00,VWS V14.01,2013-08-28 20:22:00,
2013-08-28 14:23:00,64.2,44.7,30.03,SSW,208,3.1,5.4,49,0.00,,---,0.00,VWS V14.01,2013-08-28 20:23:00,
2013-08-28 14:24:00,64.2,44.7,30.03,SSW,209,4.0,5.4,49,0.00,,---,0.00,VWS V14.01,2013-08-28 20:24:00,
2013-08-28 14:27:00,63.5,45.6,30.03,SSW,195,4.9,5.4,52,0.00,,---,0.00,VWS V14.01,2013-08-28 20:27:00,
2013-08-28 14:28:00,63.3,45.9,30.03,SSW,200,5.4,5.4,53,0.00,,---,0.00,VWS V14.01,2013-08-28 20:28:00,
2013-08-28 14:29:00,63.3,45.9,30.06,SSW,203,5.8,5.8,53,0.00,,---,0.00,VWS V14.01,2013-08-28 20:29:00,
2013-08-28 14:32:00,63.0,46.6,30.06,SSW,208,3.6,4.0,55,0.00,,---,0.00,VWS V14.01,2013-08-28 20:32:00,
2013-08-28 14:33:00,62.8,46.4,30.06,South,191,3.6,5.4,55,0.00,,---,0.00,VWS V14.01,2013-08-28 20:33:00,
2013-08-28 14:34:00,62.8,46.9,30.06,South,189,5.4,5.4,56,0.00,,---,0.00,VWS V14.01,2013-08-28 20:34:00,
2013-08-28 14:37:00,62.1,48.0,30.06,SSW,199,4.0,7.6,60,0.04,,---,0.04,VWS V14.01,2013-08-28 20:37:00,
2013-08-28 14:38:00,62.1,48.0,30.06,SSW,211,4.9,5.4,60,0.04,,---,0.04,VWS V14.01,2013-08-28 20:38:00,
2013-08-28 14:39:00,61.7,48.6,30.06,SW,236,3.6,4.5,62,0.04,,---,0.04,VWS V14.01,2013-08-28 20:39:00,
2013-08-28 14:42:00,61.2,49.3,30.06,SSW,195,3.1,3.1,65,0.08,,---,0.08,VWS V14.01,2013-08-28 20:42:00,
2013-08-28 14:43:00,60.8,49.4,30.06,SSW,200,4.0,4.0,66,0.08,,---,0.08,VWS V14.01,2013-08-28 20:43:00,
2013-08-28 14:44:00,60.6,50.0,30.06,SSW,192,4.0,4.9,68,0.08,,---,0.08,VWS V14.01,2013-08-28 20:44:00,
2013-08-28 14:47:00,60.1,50.7,30.06,SSW,193,4.9,4.9,71,0.08,,---,0.08,VWS V14.01,2013-08-28 20:47:00,
2013-08-28 14:48:00,60.1,51.0,30.06,SSW,203,4.0,4.9,72,0.08,,---,0.08,VWS V14.01,2013-08-28 20:48:00,
2013-08-28 14:49:00,59.9,51.2,30.06,SSW,208,5.4,5.8,73,0.08,,---,0.08,VWS V14.01,2013-08-28 20:49:00,
2013-08-28 14:50:00,59.9,51.2,30.06,SSW,199,6.3,6.3,73,0.08,,---,0.08,VWS V14.01,2013-08-28 20:50:00,
2013-08-28 14:52:00,59.7,50.7,30.06,SSW,198,7.6,7.6,72,0.08,,---,0.08,VWS V14.01,2013-08-28 20:52:00,
2013-08-28 14:53:00,59.7,50.7,30.06,SSW,203,7.6,7.6,72,0.08,,---,0.08,VWS V14.01,2013-08-28 20:53:00,
2013-08-28 14:54:00,59.7,50.7,30.06,SSW,203,6.3,6.3,72,0.08,,---,0.08,VWS V14.01,2013-08-28 20:54:00,
2013-08-28 14:55:00,59.7,50.7,30.06,SSW,201,5.4,6.3,72,0.08,,---,0.08,VWS V14.01,2013-08-28 20:55:00,
2013-08-28 14:57:00,59.5,50.9,30.06,South,186,6.3,6.3,73,0.08,,---,0.08,VWS V14.01,2013-08-28 20:57:00,
2013-08-28 14:58:00,59.5,50.9,30.06,South,186,3.1,5.4,73,0.12,,---,0.12,VWS V14.01,2013-08-28 20:58:00,
2013-08-28 14:59:00,59.5,50.9,30.06,SSW,204,5.4,6.3,73,0.12,,---,0.12,VWS V14.01,2013-08-28 20:59:00,
2013-08-28 15:00:00,59.5,50.9,30.06,South,172,4.0,6.3,73,0.12,,---,0.12,VWS V14.01,2013-08-28 21:00:00,
2013-08-28 15:02:00,59.7,51.8,30.06,SSW,194,3.1,5.4,75,0.12,,---,0.12,VWS V14.01,2013-08-28 21:02:00,
2013-08-28 15:03:00,59.5,51.6,30.06,South,185,2.2,3.6,75,0.12,,---,0.12,VWS V14.01,2013-08-28 21:03:00,
2013-08-28 15:04:00,59.5,51.6,30.06,South,185,0.0,2.7,75,0.12,,---,0.12,VWS V14.01,2013-08-28 21:04:00,
2013-08-28 15:05:00,59.5,51.6,30.06,South,176,2.7,2.7,75,0.12,,---,0.12,VWS V14.01,2013-08-28 21:05:00,
2013-08-28 15:07:00,59.5,51.6,30.06,South,175,3.6,3.6,75,0.12,,---,0.12,VWS V14.01,2013-08-28 21:07:00,
2013-08-28 15:08:00,59.7,52.5,30.06,South,181,4.0,4.0,77,0.12,,---,0.12,VWS V14.01,2013-08-28 21:08:00,
2013-08-28 15:09:00,59.7,52.9,30.06,South,189,4.5,4.5,78,0.12,,---,0.12,VWS V14.01,2013-08-28 21:09:00,
2013-08-28 15:10:00,59.7,52.9,30.06,SSW,204,5.4,5.4,78,0.12,,---,0.12,VWS V14.01,2013-08-28 21:10:00,
2013-08-28 15:11:00,59.7,52.9,30.06,South,182,3.6,5.4,78,0.12,,---,0.12,VWS V14.01,2013-08-28 21:11:00,
2013-08-28 15:12:00,59.9,53.4,30.06,South,181,4.0,4.0,79,0.12,,---,0.12,VWS V14.01,2013-08-28 21:12:00,
2013-08-28 15:13:00,59.9,53.4,30.03,South,186,4.0,6.3,79,0.12,,---,0.12,VWS V14.01,2013-08-28 21:13:00,
2013-08-28 15:14:00,59.9,53.4,30.03,South,190,3.1,4.0,79,0.12,,---,0.12,VWS V14.01,2013-08-28 21:14:00,
2013-08-28 15:15:00,60.1,53.6,30.03,South,183,4.0,4.0,79,0.12,,---,0.12,VWS V14.01,2013-08-28 21:15:00,
2013-08-28 15:16:00,60.1,53.6,30.03,South,179,3.6,3.6,79,0.12,,---,0.12,VWS V14.01,2013-08-28 21:16:00,
2013-08-28 15:18:00,60.3,53.7,30.03,SSW,197,4.0,5.4,79,0.12,,---,0.12,VWS V14.01,2013-08-28 21:18:00,
2013-08-28 15:20:00,60.4,53.9,30.03,South,178,3.6,4.9,79,0.12,,---,0.12,VWS V14.01,2013-08-28 21:20:00,
2013-08-28 15:21:00,60.6,54.1,30.03,SSW,192,3.1,6.3,79,0.12,,---,0.12,VWS V14.01,2013-08-28 21:21:00,
2013-08-28 15:23:00,61.0,54.4,30.03,South,173,3.6,5.4,79,0.12,,---,0.12,VWS V14.01,2013-08-28 21:23:00,
2013-08-28 15:24:00,61.2,54.6,30.03,South,175,4.9,4.9,79,0.12,,---,0.12,VWS V14.01,2013-08-28 21:24:00,
2013-08-28 15:25:00,61.3,54.8,30.03,SSW,199,5.8,5.8,79,0.12,,---,0.12,VWS V14.01,2013-08-28 21:25:00,
2013-08-28 15:26:00,61.5,54.6,30.03,SSW,200,4.9,5.8,78,0.12,,---,0.12,VWS V14.01,2013-08-28 21:26:00,
2013-08-28 15:27:00,61.5,54.2,30.03,South,189,3.1,5.8,77,0.12,,---,0.12,VWS V14.01,2013-08-28 21:27:00,
2013-08-28 15:28:00,61.7,54.1,30.03,SSW,193,2.7,4.0,76,0.12,,---,0.12,VWS V14.01,2013-08-28 21:28:00,
2013-08-28 15:29:00,61.9,54.6,30.03,SSW,203,4.0,4.9,77,0.12,,---,0.12,VWS V14.01,2013-08-28 21:29:00,
2013-08-28 15:30:00,62.1,54.8,30.03,SSW,201,5.4,5.8,77,0.12,,---,0.12,VWS V14.01,2013-08-28 21:30:00,
2013-08-28 15:32:00,62.2,53.5,30.03,SSW,200,5.8,5.8,73,0.12,,---,0.12,VWS V14.01,2013-08-28 21:32:00,
2013-08-28 15:33:00,62.4,53.7,30.03,SSW,198,3.6,8.7,73,0.12,,---,0.12,VWS V14.01,2013-08-28 21:33:00,
2013-08-28 15:34:00,62.4,52.5,30.03,SSW,197,8.1,8.1,70,0.12,,---,0.12,VWS V14.01,2013-08-28 21:34:00,
2013-08-28 15:35:00,62.4,52.5,30.03,SSW,193,6.3,8.1,70,0.12,,---,0.12,VWS V14.01,2013-08-28 21:35:00,
2013-08-28 15:37:00,63.1,52.4,30.03,SW,214,6.3,6.3,68,0.12,,---,0.12,VWS V14.01,2013-08-28 21:37:00,
2013-08-28 15:38:00,63.1,52.0,30.03,SW,218,5.8,5.8,67,0.12,,---,0.12,VWS V14.01,2013-08-28 21:38:00,
2013-08-28 15:39:00,63.1,52.0,30.03,SSW,196,4.0,5.8,67,0.12,,---,0.12,VWS V14.01,2013-08-28 21:39:00,
2013-08-28 15:40:00,63.7,52.1,30.03,SSW,198,5.4,6.3,66,0.12,,---,0.12,VWS V14.01,2013-08-28 21:40:00,
2013-08-28 15:42:00,63.9,51.9,30.03,SSW,209,5.4,5.4,65,0.12,,---,0.12,VWS V14.01,2013-08-28 21:42:00,
2013-08-28 15:43:00,64.2,52.2,30.00,SSW,201,4.9,4.9,65,0.12,,---,0.12,VWS V14.01,2013-08-28 21:43:00,
2013-08-28 15:44:00,64.2,51.8,30.00,SSW,204,3.6,5.8,64,0.12,,---,0.12,VWS V14.01,2013-08-28 21:44:00,
2013-08-28 15:45:00,64.4,52.0,30.00,WSW,246,4.0,4.0,64,0.04,,---,0.12,VWS V14.01,2013-08-28 21:45:00,
2013-08-28 15:47:00,64.8,51.9,30.00,WSW,251,2.7,4.0,63,0.04,,---,0.12,VWS V14.01,2013-08-28 21:47:00,
2013-08-28 15:48:00,64.9,52.5,30.00,WSW,255,3.1,4.0,64,0.04,,---,0.12,VWS V14.01,2013-08-28 21:48:00,
2013-08-28 15:49:00,64.9,51.6,30.00,West,266,4.0,4.0,62,0.04,,---,0.12,VWS V14.01,2013-08-28 21:49:00,
2013-08-28 15:50:00,65.1,51.8,30.00,WSW,251,3.1,3.1,62,0.04,,---,0.12,VWS V14.01,2013-08-28 21:50:00,
2013-08-28 15:51:00,65.5,53.0,30.00,SW,229,3.1,3.1,64,0.04,,---,0.12,VWS V14.01,2013-08-28 21:51:00,
2013-08-28 15:53:00,65.7,51.9,30.00,SW,232,3.1,3.1,61,0.04,,---,0.12,VWS V14.01,2013-08-28 21:53:00,
2013-08-28 15:54:00,65.8,52.0,30.00,SW,227,0.0,3.6,61,0.04,,---,0.12,VWS V14.01,2013-08-28 21:54:00,
2013-08-28 15:55:00,66.0,51.3,30.00,SW,227,2.7,2.7,59,0.04,,---,0.12,VWS V14.01,2013-08-28 21:55:00,
2013-08-28 15:56:00,66.2,51.5,30.00,SSW,199,2.7,2.7,59,0.04,,---,0.12,VWS V14.01,2013-08-28 21:56:00,
2013-08-28 15:58:00,66.2,48.1,30.00,SSW,213,2.7,4.9,52,0.04,,---,0.12,VWS V14.01,2013-08-28 21:58:00,
2013-08-28 15:59:00,66.4,49.2,30.03,SSW,200,3.1,3.1,54,0.04,,---,0.12,VWS V14.01,2013-08-28 21:59:00,
2013-08-28 16:00:00,66.4,48.8,30.03,SSW,207,2.7,3.6,53,0.00,,---,0.12,VWS V14.01,2013-08-28 22:00:00,
2013-08-28 16:01:00,66.6,49.9,30.03,SSW,202,4.0,4.0,55,0.00,,---,0.12,VWS V14.01,2013-08-28 22:01:00,
2013-08-28 16:03:00,66.6,48.4,30.03,SSW,205,4.0,4.0,52,0.00,,---,0.12,VWS V14.01,2013-08-28 22:03:00,
2013-08-28 16:04:00,66.6,48.4,30.03,SSW,207,4.9,4.9,52,0.00,,---,0.12,VWS V14.01,2013-08-28 22:04:00,
2013-08-28 16:05:00,66.7,48.6,30.03,SSW,207,4.0,4.0,52,0.00,,---,0.12,VWS V14.01,2013-08-28 22:05:00,
2013-08-28 16:06:00,66.7,49.6,30.03,SSW,210,3.6,4.0,54,0.00,,---,0.12,VWS V14.01,2013-08-28 22:06:00,
2013-08-28 16:09:00,66.7,48.6,30.03,SSW,198,3.6,4.0,52,0.00,,---,0.12,VWS V14.01,2013-08-28 22:09:00,
2013-08-28 16:10:00,67.1,49.4,30.03,SSW,198,2.7,2.7,53,0.00,,---,0.12,VWS V14.01,2013-08-28 22:10:00,
2013-08-28 16:11:00,67.3,50.6,30.03,SSW,198,2.2,2.7,55,0.00,,---,0.12,VWS V14.01,2013-08-28 22:11:00,
2013-08-28 16:12:00,67.3,50.6,30.03,SSW,198,2.7,2.7,55,0.00,,---,0.12,VWS V14.01,2013-08-28 22:12:00,
2013-08-28 16:14:00,67.6,53.3,30.03,West,267,3.1,4.0,60,0.00,,---,0.12,VWS V14.01,2013-08-28 22:14:00,
2013-08-28 16:16:00,67.3,49.6,30.03,SW,219,2.7,3.1,53,0.00,,---,0.12,VWS V14.01,2013-08-28 22:16:00,
2013-08-28 16:17:00,67.5,51.7,30.03,SW,223,2.2,3.6,57,0.00,,---,0.12,VWS V14.01,2013-08-28 22:17:00,
2013-08-28 16:19:00,67.3,45.8,30.03,South,189,8.1,8.1,46,0.00,,---,0.12,VWS V14.01,2013-08-28 22:19:00,
2013-08-28 16:21:00,67.3,45.8,30.03,SSW,204,2.7,5.8,46,0.00,,---,0.12,VWS V14.01,2013-08-28 22:21:00,
2013-08-28 16:22:00,67.5,47.1,30.03,South,182,4.0,4.9,48,0.00,,---,0.12,VWS V14.01,2013-08-28 22:22:00,
2013-08-28 16:24:00,67.6,48.4,30.03,South,182,2.2,3.1,50,0.00,,---,0.12,VWS V14.01,2013-08-28 22:24:00,
2013-08-28 16:25:00,67.6,48.4,30.03,South,182,2.2,3.1,50,0.00,,---,0.12,VWS V14.01,2013-08-28 22:25:00,
2013-08-28 16:26:00,67.8,48.0,30.03,South,182,0.0,2.7,49,0.00,,---,0.12,VWS V14.01,2013-08-28 22:26:00,
2013-08-28 16:27:00,68.0,45.9,30.03,NW,307,0.0,4.0,45,0.00,,---,0.12,VWS V14.01,2013-08-28 22:27:00,
2013-08-28 16:29:00,68.2,45.5,30.03,NW,304,2.2,2.7,44,0.00,,---,0.12,VWS V14.01,2013-08-28 22:29:00,
2013-08-28 16:30:00,68.4,45.6,30.03,NW,316,0.0,4.0,44,0.00,,---,0.12,VWS V14.01,2013-08-28 22:30:00,
2013-08-28 16:31:00,68.5,45.2,30.03,SSW,195,3.1,3.6,43,0.00,,---,0.12,VWS V14.01,2013-08-28 22:31:00,
2013-08-28 16:32:00,68.7,45.3,30.03,SSW,212,3.1,3.6,43,0.00,,---,0.12,VWS V14.01,2013-08-28 22:32:00,
2013-08-28 16:34:00,68.9,46.1,30.03,West,263,3.1,3.6,44,0.00,,---,0.12,VWS V14.01,2013-08-28 22:34:00,
2013-08-28 16:35:00,69.1,46.3,30.03,West,263,0.0,3.1,44,0.00,,---,0.12,VWS V14.01,2013-08-28 22:35:00,
2013-08-28 16:36:00,69.1,46.3,30.03,West,263,0.0,0.0,44,0.00,,---,0.12,VWS V14.01,2013-08-28 22:36:00,
2013-08-28 16:38:00,69.3,45.2,30.03,West,278,2.7,2.7,42,0.00,,---,0.12,VWS V14.01,2013-08-28 22:38:00,
2013-08-28 16:39:00,69.4,46.0,30.03,North,4,0.0,3.1,43,0.00,,---,0.12,VWS V14.01,2013-08-28 22:39:00,
2013-08-28 16:40:00,69.4,46.0,30.03,ESE,109,3.1,3.1,43,0.00,,---,0.12,VWS V14.01,2013-08-28 22:40:00,
2013-08-28 16:41:00,69.6,46.2,30.03,ESE,111,2.7,4.0,43,0.00,,---,0.12,VWS V14.01,2013-08-28 22:41:00,
2013-08-28 16:43:00,69.8,45.7,30.03,ESE,110,2.7,3.1,42,0.00,,---,0.12,VWS V14.01,2013-08-28 22:43:00,
2013-08-28 16:45:00,69.8,45.1,30.03,East,98,2.2,3.6,41,0.00,,---,0.12,VWS V14.01,2013-08-28 22:45:00,
2013-08-28 16:46:00,70.0,45.2,30.03,East,99,2.7,4.0,41,0.00,,---,0.12,VWS V14.01,2013-08-28 22:46:00,
2013-08-28 16:49:00,70.0,43.9,30.03,East,93,0.0,0.0,39,0.00,,---,0.12,VWS V14.01,2013-08-28 22:49:00,
2013-08-28 16:50:00,70.0,43.9,30.03,East,93,2.7,2.7,39,0.00,,---,0.12,VWS V14.01,2013-08-28 22:50:00,
2013-08-28 16:51:00,70.2,44.7,30.03,SE,141,2.7,3.1,40,0.00,,---,0.12,VWS V14.01,2013-08-28 22:51:00,
2013-08-28 16:54:00,70.2,44.1,30.03,SE,133,2.7,2.7,39,0.00,,---,0.12,VWS V14.01,2013-08-28 22:54:00,
2013-08-28 16:55:00,70.2,42.7,30.03,ESE,108,0.0,3.6,37,0.00,,---,0.12,VWS V14.01,2013-08-28 22:55:00,
2013-08-28 16:56:00,70.3,42.9,30.03,SE,145,3.1,3.1,37,0.00,,---,0.12,VWS V14.01,2013-08-28 22:56:00,
2013-08-28 16:59:00,70.5,43.0,30.03,SE,127,3.1,3.6,37,0.00,,---,0.12,VWS V14.01,2013-08-28 22:59:00,
2013-08-28 17:00:00,70.5,43.0,30.03,South,178,3.6,3.6,37,0.00,,---,0.12,VWS V14.01,2013-08-28 23:00:00,
2013-08-28 17:01:00,70.7,42.5,30.03,South,177,2.2,3.6,36,0.00,,---,0.12,VWS V14.01,2013-08-28 23:01:00,
2013-08-28 17:02:00,70.7,41.7,30.03,South,177,2.7,2.7,35,0.00,,---,0.12,VWS V14.01,2013-08-28 23:02:00,
2013-08-28 17:05:00,70.9,42.6,30.03,SSE,154,2.7,3.6,36,0.00,,---,0.12,VWS V14.01,2013-08-28 23:05:00,
2013-08-28 17:06:00,71.1,42.8,30.03,South,176,2.7,3.1,36,0.00,,---,0.12,VWS V14.01,2013-08-28 23:06:00,
2013-08-28 17:07:00,71.1,41.3,30.03,ESE,120,2.7,4.0,34,0.00,,---,0.12,VWS V14.01,2013-08-28 23:07:00,
2013-08-28 17:10:00,71.2,41.5,30.03,SSE,165,2.2,3.1,34,0.00,,---,0.12,VWS V14.01,2013-08-28 23:10:00,
2013-08-28 17:11:00,71.2,41.5,30.03,South,176,3.1,3.1,34,0.00,,---,0.12,VWS V14.01,2013-08-28 23:11:00,
2013-08-28 17:12:00,71.2,40.7,30.03,South,180,3.1,3.1,33,0.00,,---,0.12,VWS V14.01,2013-08-28 23:12:00,
2013-08-28 17:15:00,71.6,41.0,30.03,ESE,120,2.2,2.2,33,0.00,,---,0.12,VWS V14.01,2013-08-28 23:15:00,
2013-08-28 17:16:00,71.6,41.0,30.03,ESE,120,0.0,2.2,33,0.00,,---,0.12,VWS V14.01,2013-08-28 23:16:00,
2013-08-28 17:17:00,71.6,41.0,30.03,ESE,120,0.0,2.2,33,0.00,,---,0.12,VWS V14.01,2013-08-28 23:17:00,
2013-08-28 17:18:00,71.8,41.2,30.03,ESE,120,0.0,0.0,33,0.00,,---,0.12,VWS V14.01,2013-08-28 23:18:00,
2013-08-28 17:20:00,72.0,41.3,30.03,ESE,120,2.7,2.7,33,0.00,,---,0.12,VWS V14.01,2013-08-28 23:20:00,
2013-08-28 17:21:00,72.0,41.3,30.03,ESE,120,2.7,2.7,33,0.00,,---,0.12,VWS V14.01,2013-08-28 23:21:00,
2013-08-28 17:22:00,72.1,41.5,30.03,ESE,120,0.0,2.7,33,0.00,,---,0.12,VWS V14.01,2013-08-28 23:22:00,
2013-08-28 17:23:00,72.3,41.6,30.03,ESE,120,2.2,2.2,33,0.00,,---,0.12,VWS V14.01,2013-08-28 23:23:00,
2013-08-28 17:25:00,72.5,41.0,30.03,SSW,195,2.2,2.2,32,0.00,,---,0.12,VWS V14.01,2013-08-28 23:25:00,
2013-08-28 17:26:00,72.5,41.0,30.03,SSW,195,2.2,2.2,32,0.00,,---,0.12,VWS V14.01,2013-08-28 23:26:00,
2013-08-28 17:27:00,72.5,41.0,30.03,SSW,195,0.0,0.0,32,0.00,,---,0.12,VWS V14.01,2013-08-28 23:27:00,
2013-08-28 17:28:00,72.7,41.2,30.03,SSW,195,0.0,0.0,32,0.00,,---,0.12,VWS V14.01,2013-08-28 23:28:00,
2013-08-28 17:30:00,72.9,41.3,30.00,SE,124,0.0,2.7,32,0.00,,---,0.12,VWS V14.01,2013-08-28 23:30:00,
2013-08-28 17:31:00,72.9,41.3,30.00,SE,129,0.0,2.7,32,0.00,,---,0.12,VWS V14.01,2013-08-28 23:31:00,
2013-08-28 17:32:00,73.0,41.5,30.00,SSE,167,2.7,2.7,32,0.00,,---,0.12,VWS V14.01,2013-08-28 23:32:00,
2013-08-28 17:33:00,73.0,41.5,30.00,SSE,167,0.0,2.2,32,0.00,,---,0.12,VWS V14.01,2013-08-28 23:33:00,
2013-08-28 17:34:00,73.0,41.5,30.00,SSE,167,0.0,0.0,32,0.00,,---,0.12,VWS V14.01,2013-08-28 23:34:00,
2013-08-28 17:36:00,73.2,40.8,30.00,SSE,159,2.2,2.2,31,0.00,,---,0.12,VWS V14.01,2013-08-28 23:36:00,
2013-08-28 17:37:00,73.4,41.0,30.00,ESE,106,2.7,4.0,31,0.00,,---,0.12,VWS V14.01,2013-08-28 23:37:00,
2013-08-28 17:38:00,73.4,41.0,30.00,ESE,104,3.1,4.0,31,0.00,,---,0.12,VWS V14.01,2013-08-28 23:38:00,
2013-08-28 17:39:00,73.6,41.1,30.00,ESE,104,3.1,3.1,31,0.00,,---,0.12,VWS V14.01,2013-08-28 23:39:00,
2013-08-28 17:41:00,73.6,40.3,30.00,SE,127,2.7,2.7,30,0.00,,---,0.12,VWS V14.01,2013-08-28 23:41:00,
2013-08-28 17:42:00,73.6,40.3,30.00,SSE,152,2.7,2.7,30,0.00,,---,0.12,VWS V14.01,2013-08-28 23:42:00,
2013-08-28 17:43:00,73.6,39.4,30.00,SSE,153,2.7,2.7,29,0.00,,---,0.12,VWS V14.01,2013-08-28 23:43:00,
2013-08-28 17:45:00,73.6,38.5,30.00,ESE,107,2.2,2.7,28,0.00,,---,0.12,VWS V14.01,2013-08-28 23:45:00,
2013-08-28 17:46:00,73.6,38.5,30.00,ESE,107,0.0,2.2,28,0.00,,---,0.12,VWS V14.01,2013-08-28 23:46:00,
2013-08-28 17:47:00,73.8,38.7,30.00,ESE,102,0.0,2.2,28,0.00,,---,0.12,VWS V14.01,2013-08-28 23:47:00,
2013-08-28 17:48:00,73.8,38.7,30.00,ENE,59,2.7,3.1,28,0.00,,---,0.12,VWS V14.01,2013-08-28 23:48:00,
2013-08-28 17:50:00,73.8,38.7,30.00,ENE,59,0.0,0.0,28,0.00,,---,0.12,VWS V14.01,2013-08-28 23:50:00,
2013-08-28 17:51:00,73.8,38.7,30.00,East,87,2.2,2.7,28,0.00,,---,0.12,VWS V14.01,2013-08-28 23:51:00,
2013-08-28 17:52:00,73.8,38.7,30.00,East,87,0.0,2.2,28,0.00,,---,0.12,VWS V14.01,2013-08-28 23:52:00,
2013-08-28 17:53:00,73.9,38.8,30.00,ESE,103,3.1,3.1,28,0.00,,---,0.12,VWS V14.01,2013-08-28 23:53:00,
2013-08-28 17:55:00,73.9,39.7,30.00,ESE,107,3.6,4.0,29,0.00,,---,0.12,VWS V14.01,2013-08-28 23:55:00,
2013-08-28 17:56:00,74.1,40.7,30.00,ESE,106,2.2,3.6,30,0.00,,---,0.12,VWS V14.01,2013-08-28 23:56:00,
2013-08-28 17:57:00,74.1,40.7,30.00,ESE,106,0.0,0.0,30,0.00,,---,0.12,VWS V14.01,2013-08-28 23:57:00,
2013-08-28 17:59:00,74.3,41.7,30.00,NNE,12,3.6,3.6,31,0.00,,---,0.12,VWS V14.01,2013-08-28 23:59:00,
2013-08-28 18:00:00,74.1,41.6,30.00,NNE,21,3.6,4.0,31,0.00,,---,0.12,VWS V14.01,2013-08-29 00:00:00,
2013-08-28 18:01:00,74.1,40.7,30.00,NNE,21,2.7,3.6,30,0.00,,---,0.12,VWS V14.01,2013-08-29 00:01:00,
2013-08-28 18:02:00,74.1,40.7,30.00,North,4,3.6,3.6,30,0.00,,---,0.12,VWS V14.01,2013-08-29 00:02:00,
2013-08-28 18:04:00,73.8,40.4,30.00,North,1,2.7,3.6,30,0.00,,---,0.12,VWS V14.01,2013-08-29 00:04:00,
2013-08-28 18:05:00,73.8,40.4,30.00,North,4,2.7,3.6,30,0.00,,---,0.12,VWS V14.01,2013-08-29 00:05:00,
2013-08-28 18:06:00,73.8,40.4,30.00,North,3,2.7,2.7,30,0.00,,---,0.12,VWS V14.01,2013-08-29 00:06:00,
2013-08-28 18:07:00,73.8,40.4,30.00,North,1,3.1,3.1,30,0.00,,---,0.12,VWS V14.01,2013-08-29 00:07:00,
2013-08-28 18:10:00,73.8,40.4,30.00,East,92,0.0,2.7,30,0.00,,---,0.12,VWS V14.01,2013-08-29 00:10:00,
2013-08-28 18:11:00,73.8,41.3,30.00,ENE,68,2.2,2.7,31,0.00,,---,0.12,VWS V14.01,2013-08-29 00:11:00,
2013-08-28 18:12:00,73.8,41.3,30.00,ENE,68,0.0,2.7,31,0.00,,---,0.12,VWS V14.01,2013-08-29 00:12:00,
2013-08-28 18:15:00,73.8,40.4,30.00,NNE,14,2.7,3.1,30,0.00,,---,0.12,VWS V14.01,2013-08-29 00:15:00,
2013-08-28 18:17:00,73.6,41.1,30.00,NNE,14,2.7,2.7,31,0.00,,---,0.12,VWS V14.01,2013-08-29 00:17:00,
2013-08-28 18:20:00,73.4,41.0,30.00,North,4,4.9,4.9,31,0.00,,---,0.12,VWS V14.01,2013-08-29 00:20:00,
2013-08-28 18:21:00,73.2,40.8,30.00,North,2,4.5,4.9,31,0.00,,---,0.12,VWS V14.01,2013-08-29 00:21:00,
2013-08-28 18:22:00,73.0,40.6,30.00,North,357,3.1,4.9,31,0.00,,---,0.12,VWS V14.01,2013-08-29 00:22:00,
2013-08-28 18:25:00,72.9,41.3,30.00,NNE,14,3.6,4.0,32,0.00,,---,0.12,VWS V14.01,2013-08-29 00:25:00,
2013-08-28 18:26:00,72.7,41.2,30.00,NNE,19,0.0,2.7,32,0.00,,---,0.12,VWS V14.01,2013-08-29 00:26:00,
2013-08-28 18:27:00,72.7,41.2,30.00,NNE,20,2.2,3.1,32,0.00,,---,0.12,VWS V14.01,2013-08-29 00:27:00,
2013-08-28 18:28:00,72.7,41.2,30.00,NNE,20,2.2,3.1,32,0.00,,---,0.00,VWS V14.01,2013-08-29 00:28:00,
2013-08-28 18:30:00,72.7,41.2,30.03,NNE,16,2.7,3.1,32,0.00,,---,0.12,VWS V14.01,2013-08-29 00:30:00,
2013-08-28 18:32:00,72.5,41.0,30.03,NNE,16,2.2,2.2,32,0.00,,---,0.12,VWS V14.01,2013-08-29 00:32:00,
2013-08-28 18:33:00,72.5,41.0,30.03,NNE,16,0.0,2.2,32,0.00,,---,0.12,VWS V14.01,2013-08-29 00:33:00,
2013-08-28 18:34:00,72.5,41.0,30.03,NNE,31,0.0,0.0,32,0.00,,---,0.12,VWS V14.01,2013-08-29 00:34:00,
2013-08-28 18:36:00,72.5,41.0,30.03,NNE,31,0.0,0.0,32,0.00,,---,0.12,VWS V14.01,2013-08-29 00:36:00,
2013-08-28 18:37:00,72.5,41.0,30.03,NNE,31,0.0,0.0,32,0.00,,---,0.12,VWS V14.01,2013-08-29 00:37:00,
2013-08-28 18:38:00,72.5,41.0,30.03,NNE,31,0.0,0.0,32,0.00,,---,0.12,VWS V14.01,2013-08-29 00:38:00,
2013-08-28 18:39:00,72.5,41.0,30.03,NNE,31,0.0,0.0,32,0.00,,---,0.12,VWS V14.01,2013-08-29 00:39:00,
2013-08-28 18:41:00,72.5,41.0,30.03,NNE,30,2.2,2.7,32,0.00,,---,0.12,VWS V14.01,2013-08-29 00:41:00,
2013-08-28 18:42:00,72.3,40.8,30.03,NNE,15,2.2,3.1,32,0.00,,---,0.12,VWS V14.01,2013-08-29 00:42:00,
2013-08-28 18:43:00,72.3,40.8,30.03,NNE,15,2.2,3.1,32,0.00,,---,0.12,VWS V14.01,2013-08-29 00:43:00,
2013-08-28 18:44:00,72.3,40.8,30.03,NNE,15,2.2,2.2,32,0.00,,---,0.12,VWS V14.01,2013-08-29 00:44:00,
2013-08-28 18:47:00,72.3,40.8,30.03,NNE,15,0.0,0.0,32,0.00,,---,0.12,VWS V14.01,2013-08-29 00:47:00,
2013-08-28 18:48:00,72.1,40.7,30.03,NNE,15,0.0,0.0,32,0.00,,---,0.12,VWS V14.01,2013-08-29 00:48:00,
2013-08-28 18:49:00,72.1,40.7,30.03,NNE,15,2.7,2.7,32,0.00,,---,0.12,VWS V14.01,2013-08-29 00:49:00,
2013-08-28 18:52:00,72.1,40.7,30.03,NNE,15,0.0,0.0,32,0.00,,---,0.12,VWS V14.01,2013-08-29 00:52:00,
2013-08-28 18:53:00,72.1,40.7,30.03,NNE,15,0.0,2.2,32,0.00,,---,0.12,VWS V14.01,2013-08-29 00:53:00,
2013-08-28 18:54:00,72.0,40.5,30.03,NNE,15,0.0,0.0,32,0.00,,---,0.12,VWS V14.01,2013-08-29 00:54:00,
2013-08-28 18:56:00,72.0,40.5,30.03,NNE,15,0.0,0.0,32,0.00,,---,0.12,VWS V14.01,2013-08-29 00:56:00,
2013-08-28 18:57:00,72.0,40.5,30.03,NNE,15,0.0,0.0,32,0.00,,---,0.12,VWS V14.01,2013-08-29 00:57:00,
2013-08-28 18:58:00,72.0,40.5,30.03,NNE,15,0.0,0.0,32,0.00,,---,0.12,VWS V14.01,2013-08-29 00:58:00,
2013-08-28 18:59:00,71.8,40.4,30.03,NNE,15,0.0,0.0,32,0.00,,---,0.12,VWS V14.01,2013-08-29 00:59:00,
2013-08-28 19:01:00,71.8,40.4,30.03,NNE,15,0.0,0.0,32,0.00,,---,0.12,VWS V14.01,2013-08-29 01:01:00,
2013-08-28 19:02:00,71.8,40.4,30.03,NNE,15,0.0,0.0,32,0.00,,---,0.12,VWS V14.01,2013-08-29 01:02:00,
2013-08-28 19:03:00,71.8,40.4,30.03,NNE,15,0.0,0.0,32,0.00,,---,0.12,VWS V14.01,2013-08-29 01:03:00,
2013-08-28 19:04:00,71.8,40.4,30.03,NNE,15,0.0,0.0,32,0.00,,---,0.12,VWS V14.01,2013-08-29 01:04:00,
2013-08-28 19:06:00,71.6,40.2,30.03,NNE,15,0.0,0.0,32,0.00,,---,0.12,VWS V14.01,2013-08-29 01:06:00,
2013-08-28 19:08:00,71.6,41.0,30.03,NNE,15,0.0,0.0,33,0.00,,---,0.12,VWS V14.01,2013-08-29 01:08:00,
2013-08-28 19:09:00,71.6,41.0,30.03,NNE,15,0.0,0.0,33,0.00,,---,0.12,VWS V14.01,2013-08-29 01:09:00,
2013-08-28 19:10:00,71.4,40.8,30.03,NNE,15,0.0,0.0,33,0.00,,---,0.12,VWS V14.01,2013-08-29 01:10:00,
2013-08-28 19:11:00,71.4,40.8,30.03,NNE,15,0.0,0.0,33,0.00,,---,0.12,VWS V14.01,2013-08-29 01:11:00,
2013-08-28 19:13:00,71.4,40.8,30.03,NNE,15,0.0,0.0,33,0.00,,---,0.12,VWS V14.01,2013-08-29 01:13:00,
2013-08-28 19:14:00,71.2,40.7,30.03,NNE,15,0.0,0.0,33,0.00,,---,0.12,VWS V14.01,2013-08-29 01:14:00,
2013-08-28 19:16:00,71.2,40.7,30.03,NNE,15,0.0,0.0,33,0.00,,---,0.12,VWS V14.01,2013-08-29 01:16:00,
2013-08-28 19:18:00,71.2,40.7,30.03,NNE,15,0.0,0.0,33,0.00,,---,0.12,VWS V14.01,2013-08-29 01:18:00,
2013-08-28 19:19:00,71.2,40.7,30.03,NNE,15,0.0,0.0,33,0.00,,---,0.12,VWS V14.01,2013-08-29 01:19:00,
2013-08-28 19:21:00,71.1,40.5,30.03,NNE,15,0.0,0.0,33,0.00,,---,0.12,VWS V14.01,2013-08-29 01:21:00,
2013-08-28 19:23:00,71.1,40.5,30.03,NNE,15,0.0,0.0,33,0.00,,---,0.12,VWS V14.01,2013-08-29 01:23:00,
2013-08-28 19:24:00,71.1,40.5,30.03,NNE,15,0.0,0.0,33,0.00,,---,0.12,VWS V14.01,2013-08-29 01:24:00,
2013-08-28 19:26:00,71.1,40.5,30.03,NNE,15,0.0,0.0,33,0.00,,---,0.12,VWS V14.01,2013-08-29 01:26:00,
2013-08-28 19:28:00,70.9,40.4,30.03,NNE,15,0.0,0.0,33,0.00,,---,0.12,VWS V14.01,2013-08-29 01:28:00,
2013-08-28 19:29:00,70.9,40.4,30.03,NNE,15,0.0,0.0,33,0.00,,---,0.12,VWS V14.01,2013-08-29 01:29:00,
2013-08-28 19:31:00,70.7,40.2,30.03,NNE,15,0.0,0.0,33,0.00,,---,0.12,VWS V14.01,2013-08-29 01:31:00,
2013-08-28 19:33:00,70.7,40.2,30.03,NNE,15,0.0,0.0,33,0.00,,---,0.12,VWS V14.01,2013-08-29 01:33:00,
2013-08-28 19:34:00,70.5,40.8,30.03,NNE,15,0.0,0.0,34,0.00,,---,0.12,VWS V14.01,2013-08-29 01:34:00,
2013-08-28 19:37:00,70.3,40.7,30.03,NNE,15,0.0,0.0,34,0.00,,---,0.12,VWS V14.01,2013-08-29 01:37:00,
2013-08-28 19:38:00,70.3,40.7,30.03,NNE,15,0.0,0.0,34,0.00,,---,0.12,VWS V14.01,2013-08-29 01:38:00,
2013-08-28 19:39:00,70.3,40.7,30.03,NNE,15,0.0,0.0,34,0.00,,---,0.12,VWS V14.01,2013-08-29 01:39:00,
2013-08-28 19:43:00,70.2,40.5,30.03,NNE,15,0.0,0.0,34,0.00,,---,0.12,VWS V14.01,2013-08-29 01:43:00,
2013-08-28 19:44:00,70.2,40.5,30.03,NNE,15,0.0,0.0,34,0.00,,---,0.12,VWS V14.01,2013-08-29 01:44:00,
2013-08-28 19:45:00,70.2,40.5,30.03,NNE,15,0.0,0.0,34,0.00,,---,0.12,VWS V14.01,2013-08-29 01:45:00,
2013-08-28 19:48:00,69.8,40.9,30.03,NNE,15,0.0,0.0,35,0.00,,---,0.12,VWS V14.01,2013-08-29 01:48:00,
2013-08-28 19:49:00,69.8,40.9,30.03,NNE,15,0.0,0.0,35,0.00,,---,0.12,VWS V14.01,2013-08-29 01:49:00,
2013-08-28 19:50:00,69.8,40.9,30.03,NNE,15,0.0,0.0,35,0.00,,---,0.12,VWS V14.01,2013-08-29 01:50:00,
2013-08-28 19:54:00,69.4,40.6,30.03,NNE,15,0.0,0.0,35,0.00,,---,0.12,VWS V14.01,2013-08-29 01:54:00,
2013-08-28 19:55:00,69.3,41.2,30.03,NNE,15,0.0,0.0,36,0.00,,---,0.12,VWS V14.01,2013-08-29 01:55:00,
2013-08-28 19:59:00,68.9,40.9,30.03,NNE,15,0.0,0.0,36,0.00,,---,0.12,VWS V14.01,2013-08-29 01:59:00,
2013-08-28 20:00:00,68.9,40.9,30.03,NNE,15,0.0,0.0,36,0.00,,---,0.12,VWS V14.01,2013-08-29 02:00:00,
2013-08-28 20:04:00,68.7,41.4,30.03,NNE,15,0.0,0.0,37,0.00,,---,0.12,VWS V14.01,2013-08-29 02:04:00,
2013-08-28 20:05:00,68.7,40.7,30.03,NNE,15,0.0,0.0,36,0.00,,---,0.12,VWS V14.01,2013-08-29 02:05:00,
2013-08-28 20:06:00,68.5,40.5,30.03,NNE,15,0.0,0.0,36,0.00,,---,0.12,VWS V14.01,2013-08-29 02:06:00,
2013-08-28 20:09:00,68.5,40.5,30.03,NNE,15,0.0,0.0,36,0.00,,---,0.12,VWS V14.01,2013-08-29 02:09:00,
2013-08-28 20:10:00,68.5,40.5,30.03,NNE,15,0.0,0.0,36,0.00,,---,0.12,VWS V14.01,2013-08-29 02:10:00,
2013-08-28 20:11:00,68.5,40.5,30.03,NNE,15,0.0,0.0,36,0.00,,---,0.12,VWS V14.01,2013-08-29 02:11:00,
2013-08-28 20:13:00,68.5,40.5,30.03,NNE,15,0.0,0.0,36,0.00,,---,0.12,VWS V14.01,2013-08-29 02:13:00,
2013-08-28 20:14:00,68.5,40.5,30.03,NNE,15,0.0,0.0,36,0.00,,---,0.12,VWS V14.01,2013-08-29 02:14:00,
2013-08-28 20:15:00,68.5,40.5,30.03,NNE,15,0.0,0.0,36,0.00,,---,0.12,VWS V14.01,2013-08-29 02:15:00,
2013-08-28 20:16:00,68.4,40.4,30.03,NNE,15,0.0,0.0,36,0.00,,---,0.12,VWS V14.01,2013-08-29 02:16:00,
2013-08-28 20:17:00,68.4,40.4,30.03,NNE,15,0.0,0.0,36,0.00,,---,0.12,VWS V14.01,2013-08-29 02:17:00,
2013-08-28 20:18:00,68.4,41.1,30.03,NNE,15,0.0,0.0,37,0.00,,---,0.12,VWS V14.01,2013-08-29 02:18:00,
2013-08-28 20:19:00,68.2,40.2,30.03,NNE,15,0.0,0.0,36,0.00,,---,0.12,VWS V14.01,2013-08-29 02:19:00,
2013-08-28 20:20:00,68.2,40.2,30.03,NNE,15,0.0,0.0,36,0.00,,---,0.12,VWS V14.01,2013-08-29 02:20:00,
2013-08-28 20:21:00,68.2,40.2,30.03,NNE,15,0.0,0.0,36,0.00,,---,0.12,VWS V14.01,2013-08-29 02:21:00,
2013-08-28 20:22:00,68.2,40.2,30.03,NNE,15,0.0,0.0,36,0.00,,---,0.12,VWS V14.01,2013-08-29 02:22:00,
2013-08-28 20:24:00,68.2,40.2,30.03,NNE,15,2.2,2.7,36,0.00,,---,0.12,VWS V14.01,2013-08-29 02:24:00,
2013-08-28 20:25:00,68.2,40.2,30.03,North,0,2.7,2.7,36,0.00,,---,0.12,VWS V14.01,2013-08-29 02:25:00,
2013-08-28 20:26:00,68.2,39.5,30.03,North,0,2.2,2.2,35,0.00,,---,0.12,VWS V14.01,2013-08-29 02:26:00,
2013-08-28 20:27:00,68.4,39.7,30.03,North,357,2.7,2.7,35,0.00,,---,0.12,VWS V14.01,2013-08-29 02:27:00,
2013-08-28 20:29:00,68.4,40.4,30.03,SSW,213,2.7,4.0,36,0.00,,---,0.12,VWS V14.01,2013-08-29 02:29:00,
2013-08-28 20:30:00,68.5,40.5,30.03,SW,216,2.2,2.7,36,0.00,,---,0.12,VWS V14.01,2013-08-29 02:30:00,
2013-08-28 20:31:00,68.5,39.8,30.03,SW,217,2.7,3.1,35,0.00,,---,0.12,VWS V14.01,2013-08-29 02:31:00,
2013-08-28 20:33:00,68.5,39.8,30.03,SSW,207,2.7,2.7,35,0.00,,---,0.12,VWS V14.01,2013-08-29 02:33:00,
2013-08-28 20:34:00,68.5,40.5,30.03,SSW,207,2.2,2.7,36,0.00,,---,0.12,VWS V14.01,2013-08-29 02:34:00,
2013-08-28 20:35:00,68.5,39.8,30.03,SSW,207,2.2,2.7,35,0.00,,---,0.12,VWS V14.01,2013-08-29 02:35:00,
2013-08-28 20:36:00,68.5,39.8,30.03,SSW,207,2.7,2.7,35,0.00,,---,0.12,VWS V14.01,2013-08-29 02:36:00,
2013-08-28 20:37:00,68.5,40.5,30.03,SSW,207,0.0,2.7,36,0.00,,---,0.12,VWS V14.01,2013-08-29 02:37:00,
2013-08-28 20:38:00,68.4,40.4,30.03,SSW,207,0.0,0.0,36,0.00,,---,0.12,VWS V14.01,2013-08-29 02:38:00,
2013-08-28 20:39:00,68.2,40.2,30.03,SSW,207,0.0,0.0,36,0.00,,---,0.12,VWS V14.01,2013-08-29 02:39:00,
2013-08-28 20:40:00,67.8,40.6,30.03,SSW,207,0.0,0.0,37,0.00,,---,0.12,VWS V14.01,2013-08-29 02:40:00,
2013-08-28 20:41:00,67.6,40.5,30.03,SSW,207,0.0,0.0,37,0.00,,---,0.12,VWS V14.01,2013-08-29 02:41:00,
2013-08-28 20:42:00,67.3,40.1,30.03,SSW,207,0.0,0.0,37,0.00,,---,0.12,VWS V14.01,2013-08-29 02:42:00,
2013-08-28 20:44:00,66.9,40.5,30.03,SSW,207,0.0,0.0,38,0.00,,---,0.12,VWS V14.01,2013-08-29 02:44:00,
2013-08-28 20:46:00,66.6,41.5,30.03,SSW,195,3.1,3.6,40,0.00,,---,0.12,VWS V14.01,2013-08-29 02:46:00,
2013-08-28 20:47:00,66.2,41.8,30.03,SSW,193,3.6,4.0,41,0.00,,---,0.12,VWS V14.01,2013-08-29 02:47:00,
2013-08-28 20:49:00,65.8,42.7,30.03,SSW,201,3.1,4.9,43,0.00,,---,0.12,VWS V14.01,2013-08-29 02:49:00,
2013-08-28 20:51:00,65.7,42.6,30.03,SSW,196,4.5,4.9,43,0.00,,---,0.12,VWS V14.01,2013-08-29 02:51:00,
2013-08-28 20:52:00,65.5,42.4,30.03,SSW,198,4.0,4.5,43,0.00,,---,0.12,VWS V14.01,2013-08-29 02:52:00,
2013-08-28 20:53:00,65.5,42.4,30.03,SSW,197,3.1,4.0,43,0.00,,---,0.12,VWS V14.01,2013-08-29 02:53:00,
2013-08-28 20:54:00,65.5,42.4,30.03,SSW,192,3.6,3.6,43,0.00,,---,0.12,VWS V14.01,2013-08-29 02:54:00,
2013-08-28 20:55:00,65.5,42.4,30.03,South,187,4.0,4.0,43,0.00,,---,0.12,VWS V14.01,2013-08-29 02:55:00,
2013-08-28 20:56:00,65.5,42.4,30.03,South,182,3.1,4.0,43,0.00,,---,0.12,VWS V14.01,2013-08-29 02:56:00,
2013-08-28 20:57:00,65.5,42.4,30.03,South,187,2.7,3.6,43,0.00,,---,0.12,VWS V14.01,2013-08-29 02:57:00,
2013-08-28 20:58:00,65.5,42.4,30.03,SSW,192,4.0,4.9,43,0.00,,---,0.12,VWS V14.01,2013-08-29 02:58:00,
2013-08-28 20:59:00,65.5,42.4,30.03,South,187,3.6,4.0,43,0.00,,---,0.12,VWS V14.01,2013-08-29 02:59:00,
2013-08-28 21:01:00,65.5,42.4,30.03,SSW,194,3.6,4.5,43,0.00,,---,0.12,VWS V14.01,2013-08-29 03:01:00,
2013-08-28 21:02:00,65.5,41.8,30.03,SSW,194,4.0,4.0,42,0.00,,---,0.12,VWS V14.01,2013-08-29 03:02:00,
2013-08-28 21:03:00,65.5,41.8,30.03,SSW,195,3.6,4.0,42,0.00,,---,0.12,VWS V14.01,2013-08-29 03:03:00,
2013-08-28 21:05:00,65.5,41.8,30.03,South,185,3.1,3.6,42,0.00,,---,0.12,VWS V14.01,2013-08-29 03:05:00,
2013-08-28 21:06:00,65.5,41.8,30.03,SSW,192,3.6,3.6,42,0.00,,---,0.12,VWS V14.01,2013-08-29 03:06:00,
2013-08-28 21:07:00,65.5,41.8,30.03,SSW,198,4.5,4.5,42,0.00,,---,0.12,VWS V14.01,2013-08-29 03:07:00,
2013-08-28 21:08:00,65.5,41.8,30.03,SSW,192,3.6,4.0,42,0.00,,---,0.12,VWS V14.01,2013-08-29 03:08:00,
2013-08-28 21:09:00,65.5,41.8,30.03,South,186,4.9,5.4,42,0.00,,---,0.12,VWS V14.01,2013-08-29 03:09:00,
2013-08-28 21:10:00,65.7,42.0,30.03,SSW,196,3.1,5.4,42,0.00,,---,0.12,VWS V14.01,2013-08-29 03:10:00,
2013-08-28 21:11:00,65.7,41.3,30.03,SSW,198,4.9,5.8,41,0.00,,---,0.12,VWS V14.01,2013-08-29 03:11:00,
2013-08-28 21:12:00,65.7,41.3,30.03,SSW,192,4.9,5.8,41,0.00,,---,0.12,VWS V14.01,2013-08-29 03:12:00,
2013-08-28 21:14:00,65.7,41.3,30.03,South,190,3.6,4.9,41,0.00,,---,0.12,VWS V14.01,2013-08-29 03:14:00,
2013-08-28 21:15:00,65.7,41.3,30.03,South,190,3.1,3.6,41,0.00,,---,0.12,VWS V14.01,2013-08-29 03:15:00,
2013-08-28 21:16:00,65.7,41.3,30.03,SSW,192,2.7,3.1,41,0.00,,---,0.12,VWS V14.01,2013-08-29 03:16:00,
2013-08-28 21:17:00,65.7,41.3,30.03,South,190,2.7,3.1,41,0.00,,---,0.12,VWS V14.01,2013-08-29 03:17:00,
2013-08-28 21:19:00,65.5,41.2,30.03,SSW,195,3.1,3.1,41,0.00,,---,0.12,VWS V14.01,2013-08-29 03:19:00,
2013-08-28 21:20:00,65.5,40.5,30.03,South,191,4.0,4.0,40,0.00,,---,0.12,VWS V14.01,2013-08-29 03:20:00,
2013-08-28 21:22:00,65.3,40.4,30.03,SSW,193,3.6,5.8,40,0.00,,---,0.12,VWS V14.01,2013-08-29 03:22:00,
2013-08-28 21:24:00,65.5,40.5,30.03,SSW,198,4.5,5.4,40,0.00,,---,0.12,VWS V14.01,2013-08-29 03:24:00,
2013-08-28 21:25:00,65.3,40.4,30.03,SSW,192,5.8,6.3,40,0.00,,---,0.12,VWS V14.01,2013-08-29 03:25:00,
2013-08-28 21:27:00,65.3,40.4,30.03,SSW,192,4.0,5.4,40,0.00,,---,0.12,VWS V14.01,2013-08-29 03:27:00,
2013-08-28 21:28:00,65.1,40.2,30.03,SSW,195,4.0,4.0,40,0.00,,---,0.12,VWS V14.01,2013-08-29 03:28:00,
2013-08-28 21:29:00,65.1,40.2,30.03,SSW,203,4.0,4.0,40,0.00,,---,0.12,VWS V14.01,2013-08-29 03:29:00,
2013-08-28 21:30:00,65.1,40.2,30.03,South,190,3.1,5.4,40,0.00,,---,0.12,VWS V14.01,2013-08-29 03:30:00,
2013-08-28 21:31:00,65.1,40.2,30.03,SSW,198,5.8,5.8,40,0.00,,---,0.12,VWS V14.01,2013-08-29 03:31:00,
2013-08-28 21:32:00,64.8,40.5,30.03,South,191,3.6,4.0,41,0.00,,---,0.12,VWS V14.01,2013-08-29 03:32:00,
2013-08-28 21:34:00,64.8,40.5,30.03,SSW,192,3.1,5.8,41,0.00,,---,0.12,VWS V14.01,2013-08-29 03:34:00,
2013-08-28 21:35:00,64.4,41.4,30.03,South,191,3.6,5.8,43,0.00,,---,0.12,VWS V14.01,2013-08-29 03:35:00,
2013-08-28 21:36:00,64.4,40.8,30.03,South,191,5.8,5.8,42,0.00,,---,0.12,VWS V14.01,2013-08-29 03:36:00,
2013-08-28 21:37:00,64.2,41.3,30.03,South,188,3.6,6.3,43,0.00,,---,0.12,VWS V14.01,2013-08-29 03:37:00,
2013-08-28 21:39:00,64.0,41.1,30.03,SSW,194,5.4,5.8,43,0.00,,---,0.12,VWS V14.01,2013-08-29 03:39:00,
2013-08-28 21:40:00,64.0,41.1,30.03,SSW,193,5.8,5.8,43,0.00,,---,0.12,VWS V14.01,2013-08-29 03:40:00,
2013-08-28 21:42:00,63.9,41.0,30.03,SSW,203,5.4,5.8,43,0.00,,---,0.12,VWS V14.01,2013-08-29 03:42:00,
2013-08-28 21:44:00,63.7,40.8,30.00,South,181,5.8,6.3,43,0.00,,---,0.12,VWS V14.01,2013-08-29 03:44:00,
2013-08-28 21:45:00,63.7,40.8,30.00,SSW,205,4.9,7.6,43,0.00,,---,0.12,VWS V14.01,2013-08-29 03:45:00,
2013-08-28 21:46:00,63.7,40.8,30.00,SSW,198,5.4,5.4,43,0.00,,---,0.00,VWS V14.01,2013-08-29 03:46:00,
2013-08-28 21:47:00,63.7,40.8,30.00,SSW,193,5.4,5.4,43,0.00,,---,0.12,VWS V14.01,2013-08-29 03:47:00,
2013-08-28 21:50:00,63.7,40.8,30.00,SSW,206,5.8,5.8,43,0.00,,---,0.12,VWS V14.01,2013-08-29 03:50:00,
2013-08-28 21:51:00,63.7,40.8,30.00,SSW,202,4.9,5.4,43,0.00,,---,0.12,VWS V14.01,2013-08-29 03:51:00,
2013-08-28 21:52:00,63.7,40.8,30.00,SSW,192,5.4,5.8,43,0.00,,---,0.12,VWS V14.01,2013-08-29 03:52:00,
2013-08-28 21:55:00,63.5,40.6,30.00,SSW,198,5.4,5.4,43,0.00,,---,0.12,VWS V14.01,2013-08-29 03:55:00,
2013-08-28 21:56:00,63.5,41.2,30.00,SSW,195,4.0,5.4,44,0.00,,---,0.12,VWS V14.01,2013-08-29 03:56:00,
2013-08-28 21:58:00,63.5,41.2,30.00,SSW,198,3.6,4.5,44,0.00,,---,0.12,VWS V14.01,2013-08-29 03:58:00,
2013-08-28 22:00:00,63.3,41.1,30.03,SSW,196,4.9,5.4,44,0.00,,---,0.12,VWS V14.01,2013-08-29 04:00:00,
2013-08-28 22:01:00,63.1,40.9,30.03,SSW,196,3.6,5.8,44,0.00,,---,0.12,VWS V14.01,2013-08-29 04:01:00,
2013-08-28 22:02:00,63.1,41.5,30.03,SSW,195,3.1,4.0,45,0.00,,---,0.12,VWS V14.01,2013-08-29 04:02:00,
2013-08-28 22:06:00,63.0,41.3,30.03,SSW,195,2.7,4.0,45,0.00,,---,0.12,VWS V14.01,2013-08-29 04:06:00,
2013-08-28 22:07:00,63.0,41.3,30.03,SSW,195,0.0,2.2,45,0.00,,---,0.12,VWS V14.01,2013-08-29 04:07:00,
2013-08-28 22:11:00,62.6,41.0,30.03,SSW,195,0.0,0.0,45,0.00,,---,0.12,VWS V14.01,2013-08-29 04:11:00,
2013-08-28 22:12:00,62.6,41.0,30.03,SSW,195,0.0,0.0,45,0.00,,---,0.12,VWS V14.01,2013-08-29 04:12:00,
2013-08-28 22:13:00,62.4,41.4,30.03,South,188,2.7,2.7,46,0.00,,---,0.12,VWS V14.01,2013-08-29 04:13:00,
2013-08-28 22:16:00,62.2,41.2,30.03,South,169,0.0,2.7,46,0.00,,---,0.12,VWS V14.01,2013-08-29 04:16:00,
2013-08-28 22:17:00,62.1,41.1,30.03,South,169,2.2,2.7,46,0.00,,---,0.12,VWS V14.01,2013-08-29 04:17:00,
2013-08-28 22:18:00,61.9,41.5,30.03,South,169,0.0,2.2,47,0.00,,---,0.12,VWS V14.01,2013-08-29 04:18:00,
2013-08-28 22:21:00,61.7,41.3,30.03,South,169,2.7,2.7,47,0.00,,---,0.12,VWS V14.01,2013-08-29 04:21:00,
2013-08-28 22:22:00,61.5,41.1,30.03,South,169,2.2,2.7,47,0.00,,---,0.12,VWS V14.01,2013-08-29 04:22:00,
2013-08-28 22:23:00,61.3,41.0,30.03,South,176,2.7,2.7,47,0.00,,---,0.12,VWS V14.01,2013-08-29 04:23:00,
2013-08-28 22:26:00,61.2,41.3,30.03,South,171,4.0,4.0,48,0.00,,---,0.12,VWS V14.01,2013-08-29 04:26:00,
2013-08-28 22:27:00,61.0,41.2,30.03,South,188,3.1,3.6,48,0.00,,---,0.12,VWS V14.01,2013-08-29 04:27:00,
2013-08-28 22:28:00,61.0,41.2,30.03,SSE,168,3.1,4.0,48,0.00,,---,0.12,VWS V14.01,2013-08-29 04:28:00,
2013-08-28 22:29:00,61.0,41.2,30.03,South,169,2.7,3.1,48,0.00,,---,0.12,VWS V14.01,2013-08-29 04:29:00,
2013-08-28 22:31:00,60.6,41.4,30.03,SSW,196,2.7,3.6,49,0.00,,---,0.12,VWS V14.01,2013-08-29 04:31:00,
2013-08-28 22:32:00,60.6,41.9,30.03,South,177,3.6,3.6,50,0.00,,---,0.12,VWS V14.01,2013-08-29 04:32:00,
2013-08-28 22:33:00,60.6,41.9,30.03,South,169,2.7,3.6,50,0.00,,---,0.12,VWS V14.01,2013-08-29 04:33:00,
2013-08-28 22:34:00,60.6,41.9,30.03,South,177,2.7,3.1,50,0.00,,---,0.12,VWS V14.01,2013-08-29 04:34:00,
2013-08-28 22:36:00,60.6,41.9,30.03,South,191,2.7,4.0,50,0.00,,---,0.12,VWS V14.01,2013-08-29 04:36:00,
2013-08-28 22:37:00,60.6,41.9,30.03,South,176,2.2,3.6,50,0.00,,---,0.12,VWS V14.01,2013-08-29 04:37:00,
2013-08-28 22:39:00,60.4,41.7,30.03,South,183,3.6,4.0,50,0.00,,---,0.12,VWS V14.01,2013-08-29 04:39:00,
2013-08-28 22:40:00,60.4,41.2,30.03,South,175,2.7,3.6,49,0.00,,---,0.12,VWS V14.01,2013-08-29 04:40:00,
2013-08-28 22:41:00,60.4,41.2,30.03,South,181,2.2,3.6,49,0.00,,---,0.12,VWS V14.01,2013-08-29 04:41:00,
2013-08-28 22:42:00,60.4,41.2,30.03,South,179,2.7,3.1,49,0.00,,---,0.12,VWS V14.01,2013-08-29 04:42:00,
2013-08-28 22:44:00,60.4,41.2,30.03,SSW,193,2.7,2.7,49,0.00,,---,0.12,VWS V14.01,2013-08-29 04:44:00,
2013-08-28 22:45:00,60.4,41.2,30.03,South,180,3.1,3.1,49,0.00,,---,0.12,VWS V14.01,2013-08-29 04:45:00,
2013-08-28 22:46:00,60.4,41.2,30.03,South,179,2.7,3.1,49,0.00,,---,0.12,VWS V14.01,2013-08-29 04:46:00,
2013-08-28 22:47:00,60.4,41.7,30.03,SSW,193,2.2,3.6,50,0.00,,---,0.12,VWS V14.01,2013-08-29 04:47:00,
2013-08-28 22:49:00,60.4,41.7,30.03,South,175,3.1,3.6,50,0.00,,---,0.12,VWS V14.01,2013-08-29 04:49:00,
2013-08-28 22:50:00,60.4,41.7,30.03,South,173,3.1,3.1,50,0.00,,---,0.12,VWS V14.01,2013-08-29 04:50:00,
2013-08-28 22:51:00,60.4,41.7,30.03,South,186,4.0,4.0,50,0.00,,---,0.12,VWS V14.01,2013-08-29 04:51:00,
2013-08-28 22:52:00,60.4,41.7,30.03,South,176,2.7,3.1,50,0.00,,---,0.12,VWS V14.01,2013-08-29 04:52:00,
2013-08-28 22:55:00,60.3,41.6,30.03,South,185,4.0,4.0,50,0.00,,---,0.12,VWS V14.01,2013-08-29 04:55:00,
2013-08-28 22:56:00,60.4,41.7,30.03,SSW,192,3.6,4.0,50,0.00,,---,0.12,VWS V14.01,2013-08-29 04:56:00,
2013-08-28 22:58:00,60.4,41.7,30.03,South,187,2.7,4.0,50,0.00,,---,0.12,VWS V14.01,2013-08-29 04:58:00,
2013-08-28 23:00:00,60.4,41.7,30.03,South,188,3.1,3.6,50,0.00,,---,0.12,VWS V14.01,2013-08-29 05:00:00,
2013-08-28 23:01:00,60.4,41.2,30.03,South,190,3.1,3.1,49,0.00,,---,0.12,VWS V14.01,2013-08-29 05:01:00,
2013-08-28 23:02:00,60.4,41.2,30.03,SSW,203,3.6,4.0,49,0.00,,---,0.12,VWS V14.01,2013-08-29 05:02:00,
2013-08-28 23:03:00,60.4,41.2,30.03,SSW,196,3.1,3.6,49,0.00,,---,0.12,VWS V14.01,2013-08-29 05:03:00,
2013-08-28 23:06:00,60.6,41.4,30.03,SSW,192,4.0,4.0,49,0.00,,---,0.12,VWS V14.01,2013-08-29 05:06:00,
2013-08-28 23:07:00,60.6,41.4,30.03,South,187,2.7,3.6,49,0.00,,---,0.12,VWS V14.01,2013-08-29 05:07:00,
2013-08-28 23:08:00,60.6,41.4,30.03,SSW,194,4.0,4.0,49,0.00,,---,0.12,VWS V14.01,2013-08-29 05:08:00,
2013-08-28 23:11:00,60.6,40.8,30.03,South,189,4.0,4.0,48,0.00,,---,0.12,VWS V14.01,2013-08-29 05:11:00,
2013-08-28 23:12:00,60.6,40.8,30.03,South,190,3.6,4.0,48,0.00,,---,0.12,VWS V14.01,2013-08-29 05:12:00,
2013-08-28 23:13:00,60.6,40.8,30.03,South,191,3.1,3.6,48,0.00,,---,0.12,VWS V14.01,2013-08-29 05:13:00,
2013-08-28 23:16:00,60.8,40.5,30.06,South,191,3.6,4.0,47,0.00,,---,0.12,VWS V14.01,2013-08-29 05:16:00,
2013-08-28 23:17:00,60.8,40.5,30.06,SSW,199,4.0,5.4,47,0.00,,---,0.12,VWS V14.01,2013-08-29 05:17:00,
2013-08-28 23:18:00,61.0,40.6,30.06,SSW,196,3.6,4.0,47,0.00,,---,0.12,VWS V14.01,2013-08-29 05:18:00,
2013-08-28 23:22:00,61.2,40.8,30.06,South,191,4.0,5.4,47,0.00,,---,0.12,VWS V14.01,2013-08-29 05:22:00,
2013-08-28 23:23:00,61.2,40.8,30.06,South,189,2.7,3.6,47,0.00,,---,0.12,VWS V14.01,2013-08-29 05:23:00,
2013-08-28 23:25:00,61.2,40.8,30.06,South,189,0.0,2.7,47,0.00,,---,0.12,VWS V14.01,2013-08-29 05:25:00,
2013-08-28 23:27:00,61.0,40.6,30.06,South,189,0.0,0.0,47,0.00,,---,0.12,VWS V14.01,2013-08-29 05:27:00,
2013-08-28 23:28:00,61.0,40.6,30.06,South,189,2.7,2.7,47,0.00,,---,0.12,VWS V14.01,2013-08-29 05:28:00,
2013-08-28 23:31:00,60.6,40.3,30.06,South,189,0.0,0.0,47,0.00,,---,0.12,VWS V14.01,2013-08-29 05:31:00,
2013-08-28 23:32:00,60.4,40.1,30.06,South,189,0.0,0.0,47,0.00,,---,0.12,VWS V14.01,2013-08-29 05:32:00,
2013-08-28 23:33:00,60.3,40.0,30.06,South,189,0.0,0.0,47,0.00,,---,0.12,VWS V14.01,2013-08-29 05:33:00,
2013-08-28 23:34:00,60.1,39.8,30.06,South,189,0.0,0.0,47,0.00,,---,0.12,VWS V14.01,2013-08-29 05:34:00,
2013-08-28 23:36:00,59.7,39.5,30.06,South,189,0.0,0.0,47,0.00,,---,0.12,VWS V14.01,2013-08-29 05:36:00,
2013-08-28 23:37:00,59.7,39.5,30.06,South,189,0.0,0.0,47,0.00,,---,0.12,VWS V14.01,2013-08-29 05:37:00,
2013-08-28 23:38:00,59.7,39.5,30.06,South,189,0.0,0.0,47,0.00,,---,0.12,VWS V14.01,2013-08-29 05:38:00,
2013-08-28 23:39:00,59.4,39.7,30.06,South,189,0.0,0.0,48,0.00,,---,0.12,VWS V14.01,2013-08-29 05:39:00,
2013-08-28 23:41:00,59.4,39.7,30.06,South,189,0.0,0.0,48,0.00,,---,0.12,VWS V14.01,2013-08-29 05:41:00,
2013-08-28 23:42:00,59.4,40.2,30.06,South,189,2.7,2.7,49,0.00,,---,0.12,VWS V14.01,2013-08-29 05:42:00,
2013-08-28 23:43:00,59.2,40.0,30.06,South,189,2.7,2.7,49,0.00,,---,0.12,VWS V14.01,2013-08-29 05:43:00,
2013-08-28 23:45:00,59.2,40.6,30.06,South,189,0.0,2.7,50,0.00,,---,0.12,VWS V14.01,2013-08-29 05:45:00,
2013-08-28 23:47:00,59.2,41.1,30.06,South,188,3.1,3.6,51,0.00,,---,0.12,VWS V14.01,2013-08-29 05:47:00,
2013-08-28 23:48:00,59.4,41.2,30.06,South,188,2.7,3.6,51,0.00,,---,0.12,VWS V14.01,2013-08-29 05:48:00,
2013-08-28 23:51:00,59.4,41.2,30.06,South,181,2.7,3.1,51,0.00,,---,0.12,VWS V14.01,2013-08-29 05:51:00,
2013-08-28 23:52:00,59.4,41.2,30.06,South,181,2.7,2.7,51,0.00,,---,0.12,VWS V14.01,2013-08-29 05:52:00,
2013-08-28 23:53:00,59.4,41.2,30.06,South,181,2.2,2.7,51,0.00,,---,0.12,VWS V14.01,2013-08-29 05:53:00,
2013-08-28 23:54:00,59.2,41.1,30.06,South,181,2.7,2.7,51,0.00,,---,0.12,VWS V14.01,2013-08-29 05:54:00,
2013-08-28 23:56:00,59.2,41.1,30.06,South,183,2.7,2.7,51,0.00,,---,0.12,VWS V14.01,2013-08-29 05:56:00,
2013-08-28 23:57:00,59.0,40.9,30.06,South,183,0.0,2.7,51,0.00,,---,0.12,VWS V14.01,2013-08-29 05:57:00,
2013-08-28 23:58:00,59.0,40.9,30.06,South,183,2.7,2.7,51,0.00,,---,0.12,VWS V14.01,2013-08-29 05:58:00,
2013-08-28 23:59:00,58.8,41.7,30.06,SSW,194,4.0,4.0,53,0.00,,---,0.12,VWS V14.01,2013-08-29 05:59:00,